Wetterdaten: Dienstag, 09.03.2010
Datum Zeit Temp. Innen Temp. Aussen UV X Diff Temp. Feuchte Inne Feuchte Auss Sonnenschein Luftdruck Regen ab 0,1 Wind Sonnenschein Windben
09.03.2010 00:00 11,6 C -0,8 C 0,0 UV-I 0,0 C 38 % 81 % 0 % 1023,8 hPa 0,0 l/m 0,0 km/h (0 Bft) 0 min 0,0 km/h (0 Bft)
09.03.2010 00:02 11,6 C -0,8 C 0,0 UV-I 0,0 C 38 % 81 % 0 % 1023,8 hPa 0,0 l/m 0,0 km/h (0 Bft) 0 min 0,0 km/h (0 Bft)
09.03.2010 00:04 11,6 C -0,8 C 0,0 UV-I 0,0 C 38 % 81 % 0 % 1023,8 hPa 0,0 l/m 0,0 km/h (0 Bft) 0 min 0,0 km/h (0 Bft)
09.03.2010 00:06 11,4 C -0,8 C 0,0 UV-I 0,0 C 38 % 81 % 0 % 1023,8 hPa 0,0 l/m 0,0 km/h (0 Bft) 0 min 0,0 km/h (0 Bft)
09.03.2010 00:08 11,4 C -0,8 C 0,0 UV-I 0,0 C 38 % 81 % 0 % 1023,8 hPa 0,0 l/m 0,0 km/h (0 Bft) 0 min 0,0 km/h (0 Bft)
09.03.2010 00:10 11,4 C -0,7 C 0,0 UV-I 0,0 C 38 % 81 % 0 % 1023,8 hPa 0,0 l/m 0,0 km/h (0 Bft) 0 min 0,0 km/h (0 Bft)
09.03.2010 00:12 11,4 C -0,7 C 0,0 UV-I 0,0 C 38 % 81 % 0 % 1024,0 hPa 0,0 l/m 0,4 km/h (0 Bft) 0 min 0,0 km/h (0 Bft)
09.03.2010 00:14 11,4 C -0,9 C 0,0 UV-I 0,0 C 38 % 81 % 0 % 1024,0 hPa 0,0 l/m 0,4 km/h (0 Bft) 0 min 0,0 km/h (0 Bft)
09.03.2010 00:16 11,4 C -0,7 C 0,0 UV-I 0,0 C 38 % 81 % 0 % 1024,0 hPa 0,0 l/m 0,4 km/h (0 Bft) 0 min 0,0 km/h (0 Bft)
09.03.2010 00:18 11,5 C -0,9 C 0,0 UV-I 0,0 C 38 % 81 % 0 % 1024,0 hPa 0,0 l/m 0,4 km/h (0 Bft) 0 min 0,0 km/h (0 Bft)
09.03.2010 00:20 11,5 C -0,9 C 0,0 UV-I 0,0 C 38 % 81 % 0 % 1024,0 hPa 0,0 l/m 0,4 km/h (0 Bft) 0 min 0,0 km/h (0 Bft)
09.03.2010 00:24 11,5 C -0,9 C 0,0 UV-I 0,0 C 38 % 81 % 0 % 1024,0 hPa 0,0 l/m 0,0 km/h (0 Bft) 0 min 0,0 km/h (0 Bft)
09.03.2010 00:26 11,5 C -0,9 C 0,0 UV-I 0,0 C 38 % 81 % 0 % 1024,0 hPa 0,0 l/m 0,0 km/h (0 Bft) 0 min 0,0 km/h (0 Bft)
09.03.2010 00:28 11,5 C -0,9 C 0,0 UV-I 0,0 C 38 % 81 % 0 % 1024,0 hPa 0,0 l/m 0,0 km/h (0 Bft) 0 min 0,0 km/h (0 Bft)
09.03.2010 00:30 11,5 C -0,9 C 0,0 UV-I 0,0 C 38 % 81 % 0 % 1024,0 hPa 0,0 l/m 0,0 km/h (0 Bft) 0 min 0,0 km/h (0 Bft)
09.03.2010 00:32 11,5 C -0,9 C 0,0 UV-I 0,0 C 38 % 81 % 0 % 1024,1 hPa 0,0 l/m 0,0 km/h (0 Bft) 0 min 0,0 km/h (0 Bft)
09.03.2010 00:34 11,5 C -0,9 C 0,0 UV-I 0,0 C 38 % 81 % 0 % 1024,1 hPa 0,0 l/m 0,0 km/h (0 Bft) 0 min 0,0 km/h (0 Bft)
09.03.2010 00:36 11,5 C -0,9 C 0,0 UV-I 0,0 C 38 % 81 % 0 % 1024,1 hPa 0,0 l/m 0,0 km/h (0 Bft) 0 min 0,0 km/h (0 Bft)
09.03.2010 00:38 11,5 C -0,9 C 0,0 UV-I 0,0 C 38 % 81 % 0 % 1024,1 hPa 0,0 l/m 0,0 km/h (0 Bft) 0 min 0,0 km/h (0 Bft)
09.03.2010 00:40 11,5 C -0,9 C 0,0 UV-I 0,0 C 38 % 81 % 0 % 1024,1 hPa 0,0 l/m 0,8 km/h (0 Bft) 0 min 3,8 km/h (1 Bft)
09.03.2010 00:42 11,5 C -0,9 C 0,0 UV-I 0,0 C 38 % 81 % 0 % 1024,1 hPa 0,0 l/m 0,8 km/h (0 Bft) 0 min 0,0 km/h (0 Bft)
09.03.2010 00:44 11,5 C -0,9 C 0,0 UV-I 0,0 C 38 % 81 % 0 % 1024,1 hPa 0,0 l/m 0,8 km/h (0 Bft) 0 min 0,0 km/h (0 Bft)
09.03.2010 00:46 11,5 C -0,9 C 0,0 UV-I 0,0 C 38 % 81 % 0 % 1024,1 hPa 0,0 l/m 0,8 km/h (0 Bft) 0 min 2,6 km/h (1 Bft)
09.03.2010 00:48 11,5 C -0,9 C 0,0 UV-I 0,0 C 38 % 81 % 0 % 1024,1 hPa 0,0 l/m 0,8 km/h (0 Bft) 0 min 0,0 km/h (0 Bft)
09.03.2010 00:50 11,5 C -0,9 C 0,0 UV-I 0,0 C 38 % 81 % 0 % 1024,1 hPa 0,0 l/m 0,8 km/h (0 Bft) 0 min 0,0 km/h (0 Bft)
09.03.2010 00:52 11,5 C -0,9 C 0,0 UV-I 0,0 C 38 % 81 % 0 % 1024,1 hPa 0,0 l/m 0,4 km/h (0 Bft) 0 min 3,1 km/h (1 Bft)
09.03.2010 00:54 11,5 C -0,9 C 0,0 UV-I 0,0 C 38 % 81 % 0 % 1024,1 hPa 0,0 l/m 0,4 km/h (0 Bft) 0 min 0,0 km/h (0 Bft)
09.03.2010 00:56 11,5 C -0,9 C 0,0 UV-I 0,0 C 38 % 81 % 0 % 1024,1 hPa 0,0 l/m 0,4 km/h (0 Bft) 0 min 0,0 km/h (0 Bft)
09.03.2010 01:00 11,3 C -0,9 C 0,0 UV-I 0,0 C 38 % 81 % 0 % 1024,1 hPa 0,0 l/m 0,4 km/h (0 Bft) 0 min 3,4 km/h (1 Bft)
09.03.2010 01:02 11,5 C -1,0 C 0,0 UV-I 0,0 C 38 % 81 % 0 % 1024,1 hPa 0,0 l/m 0,8 km/h (0 Bft) 0 min 0,0 km/h (0 Bft)
09.03.2010 01:04 11,5 C -0,9 C 0,0 UV-I 0,0 C 38 % 81 % 0 % 1024,1 hPa 0,0 l/m 0,8 km/h (0 Bft) 0 min 0,0 km/h (0 Bft)
09.03.2010 01:06 11,5 C -0,9 C 0,0 UV-I 0,0 C 38 % 81 % 0 % 1024,1 hPa 0,0 l/m 0,8 km/h (0 Bft) 0 min 0,0 km/h (0 Bft)
09.03.2010 01:08 11,3 C -1,0 C 0,0 UV-I 0,0 C 38 % 81 % 0 % 1024,1 hPa 0,0 l/m 0,8 km/h (0 Bft) 0 min 3,4 km/h (1 Bft)
09.03.2010 01:10 11,5 C -0,9 C 0,0 UV-I 0,0 C 38 % 81 % 0 % 1024,1 hPa 0,0 l/m 0,8 km/h (0 Bft) 0 min 0,0 km/h (0 Bft)
09.03.2010 01:12 11,3 C -0,9 C 0,0 UV-I 0,0 C 38 % 81 % 0 % 1024,0 hPa 0,0 l/m 0,8 km/h (0 Bft) 0 min 0,0 km/h (0 Bft)
09.03.2010 01:14 11,3 C -0,9 C 0,0 UV-I 0,0 C 38 % 80 % 0 % 1024,0 hPa 0,0 l/m 0,4 km/h (0 Bft) 0 min 0,0 km/h (0 Bft)
09.03.2010 01:16 11,3 C -0,9 C 0,0 UV-I 0,0 C 38 % 81 % 0 % 1024,0 hPa 0,0 l/m 0,8 km/h (0 Bft) 0 min 0,0 km/h (0 Bft)
09.03.2010 01:18 11,3 C -0,9 C 0,0 UV-I 0,0 C 38 % 81 % 0 % 1024,0 hPa 0,0 l/m 0,4 km/h (0 Bft) 0 min 0,0 km/h (0 Bft)
09.03.2010 01:20 11,3 C -0,9 C 0,0 UV-I 0,0 C 38 % 81 % 0 % 1024,0 hPa 0,0 l/m 0,4 km/h (0 Bft) 0 min 0,0 km/h (0 Bft)
09.03.2010 01:22 11,3 C -0,9 C 0,0 UV-I 0,0 C 38 % 81 % 0 % 1024,0 hPa 0,0 l/m 0,4 km/h (0 Bft) 0 min 0,0 km/h (0 Bft)
09.03.2010 01:24 11,4 C -0,9 C 0,0 UV-I 0,0 C 38 % 80 % 0 % 1024,0 hPa 0,0 l/m 0,4 km/h (0 Bft) 0 min 0,0 km/h (0 Bft)
09.03.2010 01:26 11,4 C -0,9 C 0,0 UV-I 0,0 C 38 % 80 % 0 % 1024,0 hPa 0,0 l/m 0,0 km/h (0 Bft) 0 min 0,0 km/h (0 Bft)
09.03.2010 01:28 11,4 C -0,9 C 0,0 UV-I 0,0 C 38 % 80 % 0 % 1024,0 hPa 0,0 l/m 0,0 km/h (0 Bft) 0 min 0,0 km/h (0 Bft)
09.03.2010 01:30 11,4 C -0,9 C 0,0 UV-I 0,0 C 38 % 80 % 0 % 1024,0 hPa 0,0 l/m 0,4 km/h (0 Bft) 0 min 2,4 km/h (1 Bft)
09.03.2010 01:32 11,4 C -1,1 C 0,0 UV-I 0,0 C 38 % 80 % 0 % 1023,8 hPa 0,0 l/m 0,4 km/h (0 Bft) 0 min 0,0 km/h (0 Bft)
09.03.2010 01:34 11,4 C -1,1 C 0,0 UV-I 0,0 C 38 % 80 % 0 % 1023,8 hPa 0,0 l/m 0,4 km/h (0 Bft) 0 min 0,0 km/h (0 Bft)
09.03.2010 01:36 11,4 C -1,1 C 0,0 UV-I 0,0 C 38 % 80 % 0 % 1023,8 hPa 0,0 l/m 0,8 km/h (0 Bft) 0 min 0,0 km/h (0 Bft)
09.03.2010 01:38 11,4 C -1,1 C 0,0 UV-I 0,0 C 38 % 80 % 0 % 1023,8 hPa 0,0 l/m 0,8 km/h (0 Bft) 0 min 2,9 km/h (1 Bft)
09.03.2010 01:40 11,4 C -1,1 C 0,0 UV-I 0,0 C 38 % 80 % 0 % 1023,8 hPa 0,0 l/m 0,8 km/h (0 Bft) 0 min 0,0 km/h (0 Bft)
09.03.2010 01:42 11,4 C -1,1 C 0,0 UV-I 0,0 C 38 % 80 % 0 % 1023,8 hPa 0,0 l/m 0,8 km/h (0 Bft) 0 min 0,0 km/h (0 Bft)
09.03.2010 01:44 11,4 C -1,1 C 0,0 UV-I 0,0 C 38 % 80 % 0 % 1023,8 hPa 0,0 l/m 0,8 km/h (0 Bft) 0 min 0,0 km/h (0 Bft)
09.03.2010 01:46 11,4 C -1,1 C 0,0 UV-I 0,0 C 38 % 80 % 0 % 1023,8 hPa 0,0 l/m 0,4 km/h (0 Bft) 0 min 0,0 km/h (0 Bft)
09.03.2010 01:48 11,4 C -1,1 C 0,0 UV-I 0,0 C 38 % 81 % 0 % 1023,8 hPa 0,0 l/m 0,8 km/h (0 Bft) 0 min 0,0 km/h (0 Bft)
09.03.2010 01:50 11,4 C -1,1 C 0,0 UV-I 0,0 C 38 % 81 % 0 % 1023,8 hPa 0,0 l/m 0,8 km/h (0 Bft) 0 min 0,0 km/h (0 Bft)
09.03.2010 01:52 11,4 C -1,1 C 0,0 UV-I 0,0 C 38 % 81 % 0 % 1023,8 hPa 0,0 l/m 0,8 km/h (0 Bft) 0 min 0,0 km/h (0 Bft)
09.03.2010 01:54 11,4 C -1,1 C 0,0 UV-I 0,0 C 38 % 81 % 0 % 1023,8 hPa 0,0 l/m 0,8 km/h (0 Bft) 0 min 0,0 km/h (0 Bft)
09.03.2010 01:58 11,4 C -1,1 C 0,0 UV-I 0,0 C 38 % 81 % 0 % 1023,8 hPa 0,0 l/m 0,8 km/h (0 Bft) 0 min 0,0 km/h (0 Bft)
09.03.2010 02:00 11,4 C -1,2 C 0,0 UV-I 0,0 C 38 % 81 % 0 % 1023,8 hPa 0,0 l/m 0,4 km/h (0 Bft) 0 min 0,0 km/h (0 Bft)
09.03.2010 02:02 11,4 C -1,1 C 0,0 UV-I 0,0 C 38 % 81 % 0 % 1023,8 hPa 0,0 l/m 0,4 km/h (0 Bft) 0 min 0,0 km/h (0 Bft)
09.03.2010 02:04 11,4 C -1,2 C 0,0 UV-I 0,0 C 38 % 81 % 0 % 1023,8 hPa 0,0 l/m 0,4 km/h (0 Bft) 0 min 0,0 km/h (0 Bft)
09.03.2010 02:06 11,4 C -1,2 C 0,0 UV-I 0,0 C 38 % 81 % 0 % 1023,8 hPa 0,0 l/m 0,8 km/h (0 Bft) 0 min 0,0 km/h (0 Bft)
09.03.2010 02:08 11,4 C -1,2 C 0,0 UV-I 0,0 C 38 % 81 % 0 % 1023,8 hPa 0,0 l/m 0,8 km/h (0 Bft) 0 min 0,0 km/h (0 Bft)
09.03.2010 02:10 11,4 C -1,2 C 0,0 UV-I 0,0 C 38 % 81 % 0 % 1023,8 hPa 0,0 l/m 0,4 km/h (0 Bft) 0 min 0,0 km/h (0 Bft)
09.03.2010 02:12 11,4 C -1,2 C 0,0 UV-I 0,0 C 38 % 81 % 0 % 1024,2 hPa 0,0 l/m 0,4 km/h (0 Bft) 0 min 0,0 km/h (0 Bft)
09.03.2010 02:14 11,4 C -1,2 C 0,0 UV-I 0,0 C 38 % 81 % 0 % 1024,2 hPa 0,0 l/m 0,4 km/h (0 Bft) 0 min 0,0 km/h (0 Bft)
09.03.2010 02:16 11,4 C -1,1 C 0,0 UV-I 0,0 C 38 % 80 % 0 % 1024,2 hPa 0,0 l/m 0,4 km/h (0 Bft) 0 min 0,0 km/h (0 Bft)
09.03.2010 02:20 11,2 C -1,1 C 0,0 UV-I 0,0 C 38 % 80 % 0 % 1024,2 hPa 0,0 l/m 0,0 km/h (0 Bft) 0 min 0,0 km/h (0 Bft)
09.03.2010 02:22 11,4 C -1,1 C 0,0 UV-I 0,0 C 38 % 81 % 0 % 1024,2 hPa 0,0 l/m 0,0 km/h (0 Bft) 0 min 0,0 km/h (0 Bft)
09.03.2010 02:24 11,4 C -1,3 C 0,0 UV-I 0,0 C 38 % 80 % 0 % 1024,2 hPa 0,0 l/m 0,0 km/h (0 Bft) 0 min 0,0 km/h (0 Bft)
09.03.2010 02:26 11,2 C -1,3 C 0,0 UV-I 0,0 C 38 % 80 % 0 % 1024,2 hPa 0,0 l/m 0,0 km/h (0 Bft) 0 min 0,0 km/h (0 Bft)
09.03.2010 02:34 11,2 C -1,3 C 0,0 UV-I 0,0 C 38 % 81 % 0 % 1024,2 hPa 0,0 l/m 0,0 km/h (0 Bft) 0 min 0,0 km/h (0 Bft)
09.03.2010 02:36 11,2 C -1,3 C 0,0 UV-I 0,0 C 38 % 81 % 0 % 1024,2 hPa 0,0 l/m 0,0 km/h (0 Bft) 0 min 0,0 km/h (0 Bft)
09.03.2010 02:38 11,2 C -1,3 C 0,0 UV-I 0,0 C 38 % 81 % 0 % 1024,2 hPa 0,0 l/m 0,0 km/h (0 Bft) 0 min 0,0 km/h (0 Bft)
09.03.2010 02:40 11,2 C -1,3 C 0,0 UV-I 0,0 C 38 % 81 % 0 % 1024,2 hPa 0,0 l/m 0,0 km/h (0 Bft) 0 min 0,0 km/h (0 Bft)
09.03.2010 02:42 11,2 C -1,3 C 0,0 UV-I 0,0 C 38 % 81 % 0 % 1024,2 hPa 0,0 l/m 0,0 km/h (0 Bft) 0 min 0,0 km/h (0 Bft)
09.03.2010 02:44 11,3 C -1,3 C 0,0 UV-I 0,0 C 38 % 81 % 0 % 1024,2 hPa 0,0 l/m 0,0 km/h (0 Bft) 0 min 0,0 km/h (0 Bft)
09.03.2010 02:46 11,2 C -1,3 C 0,0 UV-I 0,0 C 37 % 81 % 0 % 1024,2 hPa 0,0 l/m 0,0 km/h (0 Bft) 0 min 0,0 km/h (0 Bft)
09.03.2010 02:48 11,2 C -1,3 C 0,0 UV-I 0,0 C 38 % 81 % 0 % 1024,2 hPa 0,0 l/m 0,0 km/h (0 Bft) 0 min 0,0 km/h (0 Bft)
09.03.2010 02:50 11,2 C -1,4 C 0,0 UV-I 0,0 C 38 % 81 % 0 % 1024,2 hPa 0,0 l/m 0,0 km/h (0 Bft) 0 min 0,0 km/h (0 Bft)
09.03.2010 02:52 11,2 C -1,3 C 0,0 UV-I 0,0 C 37 % 81 % 0 % 1024,1 hPa 0,0 l/m 0,0 km/h (0 Bft) 0 min 0,0 km/h (0 Bft)
09.03.2010 02:54 11,3 C -1,3 C 0,0 UV-I 0,0 C 37 % 81 % 0 % 1024,1 hPa 0,0 l/m 0,0 km/h (0 Bft) 0 min 0,0 km/h (0 Bft)
09.03.2010 02:56 11,2 C -1,3 C 0,0 UV-I 0,0 C 38 % 81 % 0 % 1024,1 hPa 0,0 l/m 0,0 km/h (0 Bft) 0 min 0,0 km/h (0 Bft)
09.03.2010 02:58 11,2 C -1,3 C 0,0 UV-I 0,0 C 38 % 81 % 0 % 1024,1 hPa 0,0 l/m 0,0 km/h (0 Bft) 0 min 0,0 km/h (0 Bft)
09.03.2010 03:00 11,3 C -1,3 C 0,0 UV-I 0,0 C 38 % 81 % 0 % 1024,1 hPa 0,0 l/m 0,0 km/h (0 Bft) 0 min 0,0 km/h (0 Bft)
09.03.2010 03:02 11,3 C -1,3 C 0,0 UV-I 0,0 C 37 % 81 % 0 % 1024,1 hPa 0,0 l/m 0,0 km/h (0 Bft) 0 min 0,0 km/h (0 Bft)
09.03.2010 03:04 11,3 C -1,3 C 0,0 UV-I 0,0 C 38 % 81 % 0 % 1024,1 hPa 0,0 l/m 0,0 km/h (0 Bft) 0 min 0,0 km/h (0 Bft)
09.03.2010 03:06 11,3 C -1,5 C 0,0 UV-I 0,0 C 37 % 81 % 0 % 1024,1 hPa 0,0 l/m 0,4 km/h (0 Bft) 0 min 0,0 km/h (0 Bft)
09.03.2010 03:08 11,1 C -1,5 C 0,0 UV-I 0,0 C 38 % 81 % 0 % 1024,1 hPa 0,0 l/m 0,4 km/h (0 Bft) 0 min 0,0 km/h (0 Bft)
09.03.2010 03:10 11,1 C -1,5 C 0,0 UV-I 0,0 C 38 % 81 % 0 % 1024,1 hPa 0,0 l/m 0,4 km/h (0 Bft) 0 min 0,0 km/h (0 Bft)
09.03.2010 03:12 11,1 C -1,5 C 0,0 UV-I 0,0 C 38 % 81 % 0 % 1024,1 hPa 0,0 l/m 0,4 km/h (0 Bft) 0 min 0,0 km/h (0 Bft)
09.03.2010 03:14 11,1 C -1,5 C 0,0 UV-I 0,0 C 38 % 81 % 0 % 1024,1 hPa 0,0 l/m 0,0 km/h (0 Bft) 0 min 0,0 km/h (0 Bft)
09.03.2010 03:16 11,1 C -1,5 C 0,0 UV-I 0,0 C 38 % 81 % 0 % 1024,1 hPa 0,0 l/m 0,0 km/h (0 Bft) 0 min 0,0 km/h (0 Bft)
09.03.2010 03:20 11,1 C -1,5 C 0,0 UV-I 0,0 C 38 % 81 % 0 % 1024,1 hPa 0,0 l/m 0,0 km/h (0 Bft) 0 min 0,0 km/h (0 Bft)
09.03.2010 03:22 11,1 C -1,5 C 0,0 UV-I 0,0 C 37 % 81 % 0 % 1024,1 hPa 0,0 l/m 0,0 km/h (0 Bft) 0 min 0,0 km/h (0 Bft)
09.03.2010 03:24 11,3 C -1,5 C 0,0 UV-I 0,0 C 37 % 81 % 0 % 1024,1 hPa 0,0 l/m 0,0 km/h (0 Bft) 0 min 0,0 km/h (0 Bft)
09.03.2010 03:26 11,1 C -1,5 C 0,0 UV-I 0,0 C 38 % 81 % 0 % 1024,1 hPa 0,0 l/m 0,0 km/h (0 Bft) 0 min 0,0 km/h (0 Bft)
09.03.2010 03:28 11,1 C -1,5 C 0,0 UV-I 0,0 C 38 % 81 % 0 % 1024,1 hPa 0,0 l/m 0,0 km/h (0 Bft) 0 min 0,0 km/h (0 Bft)
09.03.2010 03:30 11,1 C -1,5 C 0,0 UV-I 0,0 C 38 % 80 % 0 % 1024,1 hPa 0,0 l/m 0,0 km/h (0 Bft) 0 min 0,0 km/h (0 Bft)
09.03.2010 03:32 11,1 C -1,5 C 0,0 UV-I 0,0 C 38 % 80 % 0 % 1024,1 hPa 0,0 l/m 0,0 km/h (0 Bft) 0 min 0,0 km/h (0 Bft)
09.03.2010 03:36 11,1 C -1,5 C 0,0 UV-I 0,0 C 37 % 80 % 0 % 1024,1 hPa 0,0 l/m 0,0 km/h (0 Bft) 0 min 0,0 km/h (0 Bft)
09.03.2010 03:38 11,1 C -1,5 C 0,0 UV-I 0,0 C 37 % 80 % 0 % 1024,1 hPa 0,0 l/m 0,0 km/h (0 Bft) 0 min 0,0 km/h (0 Bft)
09.03.2010 03:40 11,1 C -1,6 C 0,0 UV-I 0,0 C 37 % 80 % 0 % 1024,1 hPa 0,0 l/m 0,0 km/h (0 Bft) 0 min 0,0 km/h (0 Bft)
09.03.2010 03:42 11,1 C -1,6 C 0,0 UV-I 0,0 C 37 % 80 % 0 % 1024,1 hPa 0,0 l/m 0,0 km/h (0 Bft) 0 min 0,0 km/h (0 Bft)
09.03.2010 03:44 11,1 C -1,6 C 0,0 UV-I 0,0 C 37 % 80 % 0 % 1024,1 hPa 0,0 l/m 0,0 km/h (0 Bft) 0 min 0,0 km/h (0 Bft)
09.03.2010 03:46 11,1 C -1,6 C 0,0 UV-I 0,0 C 37 % 80 % 0 % 1024,1 hPa 0,0 l/m 0,0 km/h (0 Bft) 0 min 0,0 km/h (0 Bft)
09.03.2010 03:48 11,1 C -1,6 C 0,0 UV-I 0,0 C 37 % 80 % 0 % 1024,1 hPa 0,0 l/m 0,0 km/h (0 Bft) 0 min 0,0 km/h (0 Bft)
09.03.2010 03:52 11,1 C -1,5 C 0,0 UV-I 0,0 C 37 % 80 % 0 % 1024,1 hPa 0,0 l/m 0,0 km/h (0 Bft) 0 min 0,0 km/h (0 Bft)
09.03.2010 03:54 11,1 C -1,5 C 0,0 UV-I 0,0 C 37 % 80 % 0 % 1024,1 hPa 0,0 l/m 0,0 km/h (0 Bft) 0 min 0,0 km/h (0 Bft)
09.03.2010 03:56 11,1 C -1,7 C 0,0 UV-I 0,0 C 37 % 80 % 0 % 1024,1 hPa 0,0 l/m 0,0 km/h (0 Bft) 0 min 0,0 km/h (0 Bft)
09.03.2010 03:58 11,1 C -1,7 C 0,0 UV-I 0,0 C 37 % 80 % 0 % 1024,1 hPa 0,0 l/m 0,0 km/h (0 Bft) 0 min 0,0 km/h (0 Bft)
09.03.2010 04:00 11,1 C -1,7 C 0,0 UV-I 0,0 C 37 % 80 % 0 % 1024,1 hPa 0,0 l/m 0,0 km/h (0 Bft) 0 min 0,0 km/h (0 Bft)
09.03.2010 04:04 11,2 C -1,7 C 0,0 UV-I 0,0 C 37 % 80 % 0 % 1024,1 hPa 0,0 l/m 0,0 km/h (0 Bft) 0 min 0,0 km/h (0 Bft)
09.03.2010 04:06 11,2 C -1,7 C 0,0 UV-I 0,0 C 37 % 80 % 0 % 1024,1 hPa 0,0 l/m 0,0 km/h (0 Bft) 0 min 0,0 km/h (0 Bft)
09.03.2010 04:08 11,2 C -1,7 C 0,0 UV-I 0,0 C 37 % 80 % 0 % 1024,1 hPa 0,0 l/m 0,0 km/h (0 Bft) 0 min 0,0 km/h (0 Bft)
09.03.2010 04:13 11,2 C -1,7 C 0,0 UV-I 0,0 C 37 % 80 % 0 % 1024,2 hPa 0,0 l/m 0,0 km/h (0 Bft) 0 min 0,0 km/h (0 Bft)
09.03.2010 04:19 11,2 C -1,7 C 0,0 UV-I 0,0 C 37 % 80 % 0 % 1024,2 hPa 0,0 l/m 0,0 km/h (0 Bft) 0 min 0,0 km/h (0 Bft)
09.03.2010 04:20 11,2 C -1,7 C 0,0 UV-I 0,0 C 37 % 80 % 0 % 1024,2 hPa 0,0 l/m 0,0 km/h (0 Bft) 0 min 0,0 km/h (0 Bft)
09.03.2010 04:22 11,2 C -1,7 C 0,0 UV-I 0,0 C 37 % 80 % 0 % 1024,2 hPa 0,0 l/m 0,0 km/h (0 Bft) 0 min 0,0 km/h (0 Bft)
09.03.2010 04:24 11,2 C -1,7 C 0,0 UV-I 0,0 C 37 % 80 % 0 % 1024,2 hPa 0,0 l/m 0,0 km/h (0 Bft) 0 min 0,0 km/h (0 Bft)
09.03.2010 04:26 11,2 C -1,7 C 0,0 UV-I 0,0 C 37 % 80 % 0 % 1024,2 hPa 0,0 l/m 0,0 km/h (0 Bft) 0 min 0,0 km/h (0 Bft)
09.03.2010 04:28 11,2 C -1,7 C 0,0 UV-I 0,0 C 37 % 80 % 0 % 1024,2 hPa 0,0 l/m 0,0 km/h (0 Bft) 0 min 0,0 km/h (0 Bft)
09.03.2010 04:30 11,2 C -1,8 C 0,0 UV-I 0,0 C 37 % 80 % 0 % 1024,2 hPa 0,0 l/m 0,0 km/h (0 Bft) 0 min 0,0 km/h (0 Bft)
09.03.2010 04:32 11,2 C -1,7 C 0,0 UV-I 0,0 C 37 % 80 % 0 % 1024,2 hPa 0,0 l/m 0,0 km/h (0 Bft) 0 min 0,0 km/h (0 Bft)
09.03.2010 04:34 11,2 C -1,7 C 0,0 UV-I 0,0 C 37 % 80 % 0 % 1024,2 hPa 0,0 l/m 0,0 km/h (0 Bft) 0 min 0,0 km/h (0 Bft)
09.03.2010 04:36 11,2 C -1,7 C 0,0 UV-I 0,0 C 37 % 80 % 0 % 1024,2 hPa 0,0 l/m 0,0 km/h (0 Bft) 0 min 0,0 km/h (0 Bft)
09.03.2010 04:38 11,2 C -1,7 C 0,0 UV-I 0,0 C 37 % 80 % 0 % 1024,2 hPa 0,0 l/m 0,0 km/h (0 Bft) 0 min 0,0 km/h (0 Bft)
09.03.2010 04:40 11,2 C -1,7 C 0,0 UV-I 0,0 C 37 % 80 % 0 % 1024,2 hPa 0,0 l/m 0,0 km/h (0 Bft) 0 min 0,0 km/h (0 Bft)
09.03.2010 04:42 11,2 C -1,7 C 0,0 UV-I 0,0 C 37 % 80 % 0 % 1024,2 hPa 0,0 l/m 0,0 km/h (0 Bft) 0 min 0,0 km/h (0 Bft)
09.03.2010 04:44 11,2 C -1,7 C 0,0 UV-I 0,0 C 37 % 80 % 0 % 1024,2 hPa 0,0 l/m 0,0 km/h (0 Bft) 0 min 0,0 km/h (0 Bft)
09.03.2010 04:46 11,2 C -1,7 C 0,0 UV-I 0,0 C 37 % 80 % 0 % 1024,2 hPa 0,0 l/m 0,0 km/h (0 Bft) 0 min 0,0 km/h (0 Bft)
09.03.2010 04:48 11,2 C -1,7 C 0,0 UV-I 0,0 C 37 % 80 % 0 % 1024,2 hPa 0,0 l/m 0,0 km/h (0 Bft) 0 min 0,0 km/h (0 Bft)
09.03.2010 04:50 11,2 C -1,9 C 0,0 UV-I 0,0 C 37 % 80 % 0 % 1024,2 hPa 0,0 l/m 0,0 km/h (0 Bft) 0 min 0,0 km/h (0 Bft)
09.03.2010 04:52 11,1 C -1,9 C 0,0 UV-I 0,0 C 37 % 80 % 0 % 1024,2 hPa 0,0 l/m 0,0 km/h (0 Bft) 0 min 0,0 km/h (0 Bft)
09.03.2010 04:54 11,2 C -1,9 C 0,0 UV-I 0,0 C 37 % 80 % 0 % 1024,2 hPa 0,0 l/m 0,0 km/h (0 Bft) 0 min 0,0 km/h (0 Bft)
09.03.2010 04:56 11,2 C -1,9 C 0,0 UV-I 0,0 C 37 % 80 % 0 % 1024,2 hPa 0,0 l/m 0,0 km/h (0 Bft) 0 min 0,0 km/h (0 Bft)
09.03.2010 04:58 11,1 C -1,9 C 0,0 UV-I 0,0 C 37 % 80 % 0 % 1024,2 hPa 0,0 l/m 0,0 km/h (0 Bft) 0 min 0,0 km/h (0 Bft)
09.03.2010 05:00 11,1 C -1,9 C 0,0 UV-I 0,0 C 37 % 80 % 0 % 1024,2 hPa 0,0 l/m 0,0 km/h (0 Bft) 0 min 0,0 km/h (0 Bft)
09.03.2010 05:02 11,1 C -1,9 C 0,0 UV-I 0,0 C 37 % 80 % 0 % 1024,2 hPa 0,0 l/m 0,0 km/h (0 Bft) 0 min 0,0 km/h (0 Bft)
09.03.2010 05:04 11,1 C -1,9 C 0,0 UV-I 0,0 C 37 % 80 % 0 % 1024,2 hPa 0,0 l/m 0,0 km/h (0 Bft) 0 min 0,0 km/h (0 Bft)
09.03.2010 05:06 11,1 C -1,9 C 0,0 UV-I 0,0 C 37 % 80 % 0 % 1024,2 hPa 0,0 l/m 0,0 km/h (0 Bft) 0 min 0,0 km/h (0 Bft)
09.03.2010 05:08 11,1 C -1,9 C 0,0 UV-I 0,0 C 37 % 80 % 0 % 1024,2 hPa 0,0 l/m 0,0 km/h (0 Bft) 0 min 0,0 km/h (0 Bft)
09.03.2010 05:10 11,2 C -1,9 C 0,0 UV-I 0,0 C 37 % 80 % 0 % 1024,2 hPa 0,0 l/m 0,0 km/h (0 Bft) 0 min 0,0 km/h (0 Bft)
09.03.2010 05:12 11,1 C -1,9 C 0,0 UV-I 0,0 C 37 % 80 % 0 % 1024,2 hPa 0,0 l/m 0,0 km/h (0 Bft) 0 min 0,0 km/h (0 Bft)
09.03.2010 05:14 11,1 C -1,9 C 0,0 UV-I 0,0 C 37 % 80 % 0 % 1024,2 hPa 0,0 l/m 0,0 km/h (0 Bft) 0 min 0,0 km/h (0 Bft)
09.03.2010 05:16 11,1 C -1,9 C 0,0 UV-I 0,0 C 37 % 80 % 0 % 1024,2 hPa 0,0 l/m 0,0 km/h (0 Bft) 0 min 0,0 km/h (0 Bft)
09.03.2010 05:18 11,1 C -2,0 C 0,0 UV-I 0,0 C 37 % 80 % 0 % 1024,2 hPa 0,0 l/m 0,0 km/h (0 Bft) 0 min 0,0 km/h (0 Bft)
09.03.2010 05:20 11,1 C -2,0 C 0,0 UV-I 0,0 C 37 % 80 % 0 % 1024,2 hPa 0,0 l/m 0,0 km/h (0 Bft) 0 min 0,0 km/h (0 Bft)
09.03.2010 05:22 11,1 C -2,0 C 0,0 UV-I 0,0 C 37 % 80 % 0 % 1024,2 hPa 0,0 l/m 0,0 km/h (0 Bft) 0 min 0,0 km/h (0 Bft)
09.03.2010 05:24 11,1 C -2,0 C 0,0 UV-I 0,0 C 37 % 80 % 0 % 1024,2 hPa 0,0 l/m 0,0 km/h (0 Bft) 0 min 0,0 km/h (0 Bft)
09.03.2010 05:26 11,1 C -2,0 C 0,0 UV-I 0,0 C 37 % 80 % 0 % 1024,2 hPa 0,0 l/m 0,0 km/h (0 Bft) 0 min 0,0 km/h (0 Bft)
09.03.2010 05:28 11,1 C -2,0 C 0,0 UV-I 0,0 C 37 % 80 % 0 % 1024,2 hPa 0,0 l/m 0,0 km/h (0 Bft) 0 min 0,0 km/h (0 Bft)
09.03.2010 05:30 11,1 C -2,0 C 0,0 UV-I 0,0 C 37 % 80 % 0 % 1024,2 hPa 0,0 l/m 0,0 km/h (0 Bft) 0 min 0,0 km/h (0 Bft)
09.03.2010 05:32 11,1 C -2,0 C 0,0 UV-I 0,0 C 37 % 80 % 0 % 1024,2 hPa 0,0 l/m 0,0 km/h (0 Bft) 0 min 0,0 km/h (0 Bft)
09.03.2010 05:34 11,1 C -2,0 C 0,0 UV-I 0,0 C 37 % 80 % 0 % 1024,2 hPa 0,0 l/m 0,0 km/h (0 Bft) 0 min 0,0 km/h (0 Bft)
09.03.2010 05:36 11,1 C -2,1 C 0,0 UV-I 0,0 C 37 % 80 % 0 % 1024,2 hPa 0,0 l/m 0,0 km/h (0 Bft) 0 min 0,0 km/h (0 Bft)
09.03.2010 05:38 11,1 C -1,9 C 0,0 UV-I 0,0 C 37 % 80 % 0 % 1024,2 hPa 0,0 l/m 0,0 km/h (0 Bft) 0 min 0,0 km/h (0 Bft)
09.03.2010 05:40 11,1 C -2,1 C 0,0 UV-I 0,0 C 37 % 80 % 0 % 1024,2 hPa 0,0 l/m 0,0 km/h (0 Bft) 0 min 0,0 km/h (0 Bft)
09.03.2010 05:42 11,1 C -2,1 C 0,0 UV-I 0,0 C 37 % 80 % 0 % 1024,2 hPa 0,0 l/m 0,0 km/h (0 Bft) 0 min 0,0 km/h (0 Bft)
09.03.2010 05:44 11,1 C -2,1 C 0,0 UV-I 0,0 C 37 % 80 % 0 % 1024,2 hPa 0,0 l/m 0,0 km/h (0 Bft) 0 min 0,0 km/h (0 Bft)
09.03.2010 05:46 11,1 C -2,1 C 0,0 UV-I 0,0 C 37 % 80 % 0 % 1024,2 hPa 0,0 l/m 0,0 km/h (0 Bft) 0 min 0,0 km/h (0 Bft)
09.03.2010 05:50 11,1 C -2,1 C 0,0 UV-I 0,0 C 37 % 80 % 0 % 1024,2 hPa 0,0 l/m 0,0 km/h (0 Bft) 0 min 0,0 km/h (0 Bft)
09.03.2010 05:52 11,1 C -2,1 C 0,0 UV-I 0,0 C 37 % 80 % 0 % 1024,5 hPa 0,0 l/m 0,0 km/h (0 Bft) 0 min 0,0 km/h (0 Bft)
09.03.2010 05:54 11,1 C -2,1 C 0,0 UV-I 0,0 C 37 % 80 % 0 % 1024,5 hPa 0,0 l/m 0,0 km/h (0 Bft) 0 min 0,0 km/h (0 Bft)
09.03.2010 05:56 11,1 C -2,1 C 0,0 UV-I 0,0 C 37 % 80 % 0 % 1024,5 hPa 0,0 l/m 0,0 km/h (0 Bft) 0 min 2,4 km/h (1 Bft)
09.03.2010 05:58 11,1 C -2,1 C 0,0 UV-I 0,0 C 37 % 80 % 0 % 1024,5 hPa 0,0 l/m 0,0 km/h (0 Bft) 0 min 0,0 km/h (0 Bft)
09.03.2010 06:00 11,1 C -2,1 C 0,0 UV-I 0,0 C 37 % 80 % 0 % 1024,5 hPa 0,0 l/m 0,0 km/h (0 Bft) 0 min 0,0 km/h (0 Bft)
09.03.2010 06:02 11,1 C -2,1 C 0,0 UV-I 0,0 C 37 % 80 % 0 % 1024,5 hPa 0,0 l/m 0,0 km/h (0 Bft) 0 min 0,0 km/h (0 Bft)
09.03.2010 06:04 11,1 C -2,1 C 0,0 UV-I 0,0 C 37 % 80 % 0 % 1024,5 hPa 0,0 l/m 0,0 km/h (0 Bft) 0 min 0,0 km/h (0 Bft)
09.03.2010 06:06 11,1 C -2,2 C 0,0 UV-I 0,0 C 37 % 80 % 0 % 1024,5 hPa 0,0 l/m 0,0 km/h (0 Bft) 0 min 0,0 km/h (0 Bft)
09.03.2010 06:08 11,1 C -2,2 C 0,0 UV-I 0,0 C 37 % 80 % 0 % 1024,5 hPa 0,0 l/m 0,0 km/h (0 Bft) 0 min 0,0 km/h (0 Bft)
09.03.2010 06:10 10,9 C -2,1 C 0,0 UV-I 0,0 C 37 % 81 % 0 % 1024,5 hPa 0,0 l/m 0,0 km/h (0 Bft) 0 min 0,0 km/h (0 Bft)
09.03.2010 06:12 10,9 C -2,1 C 0,0 UV-I 0,0 C 37 % 81 % 0 % 1024,7 hPa 0,0 l/m 0,0 km/h (0 Bft) 0 min 0,0 km/h (0 Bft)
09.03.2010 06:14 10,9 C -2,1 C 0,0 UV-I 0,0 C 37 % 80 % 0 % 1024,7 hPa 0,0 l/m 0,0 km/h (0 Bft) 0 min 0,0 km/h (0 Bft)
09.03.2010 06:16 10,9 C -2,1 C 0,0 UV-I 0,0 C 37 % 80 % 0 % 1024,7 hPa 0,0 l/m 0,0 km/h (0 Bft) 0 min 0,0 km/h (0 Bft)
09.03.2010 06:18 11,0 C -2,1 C 0,0 UV-I 0,0 C 37 % 80 % 0 % 1024,7 hPa 0,0 l/m 0,0 km/h (0 Bft) 0 min 0,0 km/h (0 Bft)
09.03.2010 06:20 10,9 C -2,1 C 0,0 UV-I 0,0 C 37 % 80 % 0 % 1024,7 hPa 0,0 l/m 0,0 km/h (0 Bft) 0 min 0,0 km/h (0 Bft)
09.03.2010 06:22 11,0 C -2,1 C 0,0 UV-I 0,0 C 37 % 80 % 0 % 1024,7 hPa 0,0 l/m 0,0 km/h (0 Bft) 0 min 0,0 km/h (0 Bft)
09.03.2010 06:24 11,0 C -2,1 C 0,0 UV-I 0,0 C 37 % 80 % 0 % 1024,7 hPa 0,0 l/m 0,0 km/h (0 Bft) 0 min 0,0 km/h (0 Bft)
09.03.2010 06:26 10,9 C -2,1 C 0,0 UV-I 0,0 C 37 % 80 % 0 % 1024,7 hPa 0,0 l/m 0,0 km/h (0 Bft) 0 min 0,0 km/h (0 Bft)
09.03.2010 06:28 11,0 C -2,1 C 0,0 UV-I 0,0 C 37 % 80 % 0 % 1024,7 hPa 0,0 l/m 0,0 km/h (0 Bft) 0 min 0,0 km/h (0 Bft)
09.03.2010 06:30 10,9 C -2,3 C 0,0 UV-I 0,0 C 37 % 80 % 0 % 1024,7 hPa 0,0 l/m 0,0 km/h (0 Bft) 0 min 0,0 km/h (0 Bft)
09.03.2010 06:32 10,9 C -2,1 C 0,0 UV-I 0,0 C 37 % 80 % 0 % 1024,7 hPa 0,0 l/m 0,0 km/h (0 Bft) 0 min 0,0 km/h (0 Bft)
09.03.2010 06:34 11,0 C -2,3 C 0,0 UV-I 0,0 C 37 % 80 % 0 % 1024,7 hPa 0,0 l/m 0,0 km/h (0 Bft) 0 min 0,0 km/h (0 Bft)
09.03.2010 06:36 11,0 C -2,3 C 0,0 UV-I 0,0 C 37 % 81 % 0 % 1024,7 hPa 0,0 l/m 0,0 km/h (0 Bft) 0 min 0,0 km/h (0 Bft)
09.03.2010 06:38 11,0 C -2,3 C 0,0 UV-I 0,0 C 37 % 81 % 0 % 1024,7 hPa 0,0 l/m 0,0 km/h (0 Bft) 0 min 0,0 km/h (0 Bft)
09.03.2010 06:40 11,0 C -2,3 C 0,0 UV-I 0,0 C 37 % 81 % 0 % 1024,7 hPa 0,0 l/m 0,0 km/h (0 Bft) 0 min 0,0 km/h (0 Bft)
09.03.2010 06:42 11,0 C -2,3 C 0,0 UV-I 0,0 C 37 % 81 % 0 % 1024,7 hPa 0,0 l/m 0,0 km/h (0 Bft) 0 min 2,9 km/h (1 Bft)
09.03.2010 06:44 11,0 C -2,3 C 0,0 UV-I 0,0 C 37 % 81 % 0 % 1024,7 hPa 0,0 l/m 0,0 km/h (0 Bft) 0 min 0,0 km/h (0 Bft)
09.03.2010 06:46 11,0 C -2,3 C 0,0 UV-I 0,0 C 37 % 81 % 0 % 1024,7 hPa 0,0 l/m 0,4 km/h (0 Bft) 0 min 0,0 km/h (0 Bft)
09.03.2010 06:48 11,0 C -2,3 C 0,0 UV-I 0,0 C 37 % 81 % 0 % 1024,7 hPa 0,0 l/m 0,4 km/h (0 Bft) 0 min 0,0 km/h (0 Bft)
09.03.2010 06:50 11,0 C -2,3 C 0,0 UV-I 0,0 C 37 % 81 % 0 % 1024,7 hPa 0,0 l/m 0,4 km/h (0 Bft) 0 min 0,0 km/h (0 Bft)
09.03.2010 06:52 11,0 C -2,3 C 0,0 UV-I 0,0 C 37 % 81 % 0 % 1024,7 hPa 0,0 l/m 0,4 km/h (0 Bft) 0 min 0,0 km/h (0 Bft)
09.03.2010 06:54 11,0 C -2,3 C 0,0 UV-I 0,0 C 37 % 81 % 0 % 1024,7 hPa 0,0 l/m 0,4 km/h (0 Bft) 0 min 0,0 km/h (0 Bft)
09.03.2010 06:56 11,0 C -2,4 C 0,0 UV-I 0,0 C 37 % 81 % 0 % 1024,7 hPa 0,0 l/m 0,0 km/h (0 Bft) 0 min 0,0 km/h (0 Bft)
09.03.2010 06:58 11,0 C -2,4 C 0,0 UV-I 0,0 C 37 % 81 % 0 % 1024,7 hPa 0,0 l/m 0,0 km/h (0 Bft) 0 min 0,0 km/h (0 Bft)
09.03.2010 07:00 11,0 C -2,4 C 0,0 UV-I 0,0 C 37 % 81 % 0 % 1024,7 hPa 0,0 l/m 0,4 km/h (0 Bft) 0 min 3,1 km/h (1 Bft)
09.03.2010 07:02 11,0 C -2,5 C 0,0 UV-I 0,0 C 37 % 81 % 0 % 1024,7 hPa 0,0 l/m 0,4 km/h (0 Bft) 0 min 2,6 km/h (1 Bft)
09.03.2010 07:04 11,0 C -2,5 C 0,0 UV-I 0,0 C 37 % 81 % 0 % 1024,7 hPa 0,0 l/m 0,4 km/h (0 Bft) 0 min 0,0 km/h (0 Bft)
09.03.2010 07:06 11,0 C -2,3 C 0,0 UV-I 0,0 C 37 % 81 % 0 % 1024,7 hPa 0,0 l/m 0,4 km/h (0 Bft) 0 min 0,0 km/h (0 Bft)
09.03.2010 07:08 11,0 C -2,4 C 0,0 UV-I 0,0 C 37 % 81 % 0 % 1024,7 hPa 0,0 l/m 0,4 km/h (0 Bft) 0 min 0,0 km/h (0 Bft)
09.03.2010 07:10 11,0 C -2,5 C 0,0 UV-I 0,0 C 37 % 81 % 0 % 1024,7 hPa 0,0 l/m 0,4 km/h (0 Bft) 0 min 2,4 km/h (1 Bft)
09.03.2010 07:14 11,0 C -2,3 C 0,0 UV-I 0,0 C 37 % 81 % 0 % 1025,1 hPa 0,0 l/m 0,4 km/h (0 Bft) 0 min 0,0 km/h (0 Bft)
09.03.2010 07:16 11,0 C -2,5 C 0,0 UV-I 0,0 C 37 % 81 % 0 % 1025,1 hPa 0,0 l/m 0,8 km/h (0 Bft) 0 min 3,1 km/h (1 Bft)
09.03.2010 07:18 11,0 C -2,5 C 0,0 UV-I 0,0 C 37 % 81 % 0 % 1025,1 hPa 0,0 l/m 0,8 km/h (0 Bft) 0 min 0,0 km/h (0 Bft)
09.03.2010 07:20 11,0 C -2,5 C 0,0 UV-I 0,0 C 37 % 81 % 0 % 1025,1 hPa 0,0 l/m 0,8 km/h (0 Bft) 0 min 6,0 km/h (2 Bft)
09.03.2010 07:22 10,8 C -2,5 C 0,0 UV-I 0,0 C 37 % 81 % 0 % 1025,1 hPa 0,0 l/m 0,8 km/h (0 Bft) 0 min 0,0 km/h (0 Bft)
09.03.2010 07:24 11,0 C -2,5 C 0,0 UV-I 0,0 C 37 % 81 % 0 % 1025,1 hPa 0,0 l/m 0,8 km/h (0 Bft) 0 min 0,0 km/h (0 Bft)
09.03.2010 07:26 11,0 C -2,5 C 0,0 UV-I 0,0 C 37 % 81 % 0 % 1025,1 hPa 0,0 l/m 0,4 km/h (0 Bft) 0 min 0,0 km/h (0 Bft)
09.03.2010 07:28 11,0 C -2,5 C 0,0 UV-I 0,0 C 37 % 81 % 0 % 1025,1 hPa 0,0 l/m 0,4 km/h (0 Bft) 0 min 0,0 km/h (0 Bft)
09.03.2010 07:30 11,0 C -2,5 C 0,0 UV-I 0,0 C 37 % 81 % 0 % 1025,1 hPa 0,0 l/m 0,0 km/h (0 Bft) 0 min 0,0 km/h (0 Bft)
09.03.2010 07:32 11,0 C -2,5 C 0,0 UV-I 0,0 C 37 % 81 % 0 % 1024,6 hPa 0,0 l/m 0,0 km/h (0 Bft) 0 min 0,0 km/h (0 Bft)
09.03.2010 07:34 11,0 C -2,5 C 0,0 UV-I 0,0 C 37 % 81 % 0 % 1024,6 hPa 0,0 l/m 0,0 km/h (0 Bft) 0 min 0,0 km/h (0 Bft)
09.03.2010 07:36 11,0 C -2,5 C 0,0 UV-I 0,0 C 37 % 81 % 0 % 1024,6 hPa 0,0 l/m 0,0 km/h (0 Bft) 0 min 0,0 km/h (0 Bft)
09.03.2010 07:38 11,0 C -2,5 C 0,0 UV-I 0,0 C 37 % 81 % 0 % 1024,6 hPa 0,0 l/m 0,4 km/h (0 Bft) 0 min 0,0 km/h (0 Bft)
09.03.2010 07:40 11,0 C -2,5 C 0,0 UV-I 0,0 C 37 % 81 % 0 % 1024,6 hPa 0,0 l/m 0,4 km/h (0 Bft) 0 min 0,0 km/h (0 Bft)
09.03.2010 07:42 11,0 C -2,5 C 0,0 UV-I 0,0 C 37 % 81 % 0 % 1024,6 hPa 0,0 l/m 0,8 km/h (0 Bft) 0 min 0,0 km/h (0 Bft)
09.03.2010 07:44 11,0 C -2,5 C 0,0 UV-I 0,0 C 37 % 81 % 0 % 1024,6 hPa 0,0 l/m 0,8 km/h (0 Bft) 0 min 0,0 km/h (0 Bft)
09.03.2010 07:46 11,0 C -2,5 C 0,0 UV-I 0,0 C 37 % 81 % 0 % 1024,6 hPa 0,0 l/m 0,8 km/h (0 Bft) 0 min 0,0 km/h (0 Bft)
09.03.2010 07:48 11,0 C -2,5 C 0,0 UV-I 0,0 C 37 % 81 % 0 % 1024,6 hPa 0,0 l/m 0,8 km/h (0 Bft) 0 min 0,0 km/h (0 Bft)
09.03.2010 07:50 11,0 C -2,5 C 0,0 UV-I 0,0 C 37 % 81 % 0 % 1024,6 hPa 0,0 l/m 0,8 km/h (0 Bft) 0 min 0,0 km/h (0 Bft)
09.03.2010 07:52 10,8 C -2,5 C 0,0 UV-I 0,0 C 37 % 81 % 0 % 1024,8 hPa 0,0 l/m 0,4 km/h (0 Bft) 0 min 0,0 km/h (0 Bft)
09.03.2010 07:54 10,8 C -2,5 C 0,0 UV-I 0,0 C 37 % 81 % 0 % 1024,8 hPa 0,0 l/m 0,4 km/h (0 Bft) 0 min 0,0 km/h (0 Bft)
09.03.2010 07:56 10,8 C -2,5 C 0,0 UV-I 0,0 C 37 % 81 % 0 % 1024,8 hPa 0,0 l/m 0,4 km/h (0 Bft) 0 min 0,0 km/h (0 Bft)
09.03.2010 07:58 10,8 C -2,5 C 0,0 UV-I 0,0 C 37 % 81 % 0 % 1024,8 hPa 0,0 l/m 0,8 km/h (0 Bft) 0 min 2,9 km/h (1 Bft)
09.03.2010 08:00 10,8 C -2,5 C 0,0 UV-I 0,0 C 37 % 81 % 0 % 1024,8 hPa 0,0 l/m 0,8 km/h (0 Bft) 0 min 0,0 km/h (0 Bft)
09.03.2010 08:02 10,8 C -2,5 C 0,0 UV-I 0,0 C 37 % 81 % 0 % 1024,8 hPa 0,0 l/m 0,8 km/h (0 Bft) 0 min 0,0 km/h (0 Bft)
09.03.2010 08:04 10,8 C -2,5 C 0,0 UV-I 0,0 C 37 % 81 % 0 % 1024,8 hPa 0,0 l/m 0,8 km/h (0 Bft) 0 min 0,0 km/h (0 Bft)
09.03.2010 08:08 10,8 C -2,5 C 0,0 UV-I 0,0 C 37 % 81 % 0 % 1024,8 hPa 0,0 l/m 0,8 km/h (0 Bft) 0 min 3,4 km/h (1 Bft)
09.03.2010 08:10 10,8 C -2,5 C 0,0 UV-I 0,0 C 37 % 81 % 0 % 1024,8 hPa 0,0 l/m 0,0 km/h (0 Bft) 0 min 0,0 km/h (0 Bft)
09.03.2010 08:12 10,8 C -2,5 C 0,0 UV-I 0,0 C 37 % 81 % 0 % 1024,8 hPa 0,0 l/m 0,0 km/h (0 Bft) 0 min 0,0 km/h (0 Bft)
09.03.2010 08:14 10,8 C -2,5 C 0,0 UV-I 0,0 C 37 % 81 % 0 % 1024,8 hPa 0,0 l/m 0,4 km/h (0 Bft) 0 min 0,0 km/h (0 Bft)
09.03.2010 08:16 10,8 C -2,5 C 0,0 UV-I 0,0 C 37 % 81 % 0 % 1024,8 hPa 0,0 l/m 0,4 km/h (0 Bft) 0 min 0,0 km/h (0 Bft)
09.03.2010 08:18 10,8 C -2,3 C 0,0 UV-I 0,0 C 37 % 81 % 0 % 1024,8 hPa 0,0 l/m 0,4 km/h (0 Bft) 0 min 0,0 km/h (0 Bft)
09.03.2010 08:20 10,8 C -2,5 C 0,0 UV-I 0,0 C 37 % 81 % 0 % 1024,8 hPa 0,0 l/m 0,4 km/h (0 Bft) 0 min 0,0 km/h (0 Bft)
09.03.2010 08:22 10,8 C -2,4 C 0,0 UV-I 0,0 C 37 % 81 % 0 % 1024,8 hPa 0,0 l/m 0,4 km/h (0 Bft) 0 min 0,0 km/h (0 Bft)
09.03.2010 08:24 10,8 C -2,4 C 0,0 UV-I 0,0 C 37 % 81 % 0 % 1024,8 hPa 0,0 l/m 0,0 km/h (0 Bft) 0 min 0,0 km/h (0 Bft)
09.03.2010 08:26 10,8 C -2,3 C 0,0 UV-I 0,0 C 37 % 81 % 0 % 1024,8 hPa 0,0 l/m 0,0 km/h (0 Bft) 0 min 0,0 km/h (0 Bft)
09.03.2010 08:28 10,8 C -2,3 C 0,0 UV-I 0,0 C 37 % 81 % 0 % 1024,8 hPa 0,0 l/m 0,0 km/h (0 Bft) 0 min 3,1 km/h (1 Bft)
09.03.2010 08:30 10,8 C -2,3 C 0,0 UV-I 0,0 C 37 % 81 % 0 % 1024,8 hPa 0,0 l/m 0,0 km/h (0 Bft) 0 min 0,0 km/h (0 Bft)
09.03.2010 08:32 10,8 C -2,3 C 0,0 UV-I 0,0 C 37 % 81 % 0 % 1024,8 hPa 0,0 l/m 0,0 km/h (0 Bft) 0 min 0,0 km/h (0 Bft)
09.03.2010 08:34 10,8 C -2,3 C 0,1 UV-I 0,0 C 37 % 81 % 0 % 1024,8 hPa 0,0 l/m 0,4 km/h (0 Bft) 0 min 2,4 km/h (1 Bft)
09.03.2010 08:38 10,8 C -2,1 C 0,1 UV-I 0,0 C 37 % 81 % 0 % 1024,8 hPa 0,0 l/m 0,4 km/h (0 Bft) 0 min 0,0 km/h (0 Bft)
09.03.2010 08:40 10,8 C -2,1 C 0,1 UV-I 0,0 C 37 % 81 % 0 % 1024,8 hPa 0,0 l/m 0,4 km/h (0 Bft) 0 min 0,0 km/h (0 Bft)
09.03.2010 08:42 10,8 C -2,1 C 0,1 UV-I 0,0 C 37 % 81 % 0 % 1024,8 hPa 0,0 l/m 0,4 km/h (0 Bft) 0 min 0,0 km/h (0 Bft)
09.03.2010 08:44 10,8 C -2,1 C 0,1 UV-I 0,0 C 37 % 80 % 0 % 1024,8 hPa 0,0 l/m 0,4 km/h (0 Bft) 0 min 0,0 km/h (0 Bft)
09.03.2010 08:46 10,8 C -2,2 C 0,1 UV-I 0,0 C 37 % 80 % 0 % 1024,8 hPa 0,0 l/m 0,4 km/h (0 Bft) 0 min 0,0 km/h (0 Bft)
09.03.2010 08:48 11,0 C -2,1 C 0,1 UV-I 0,0 C 37 % 80 % 0 % 1024,8 hPa 0,0 l/m 0,0 km/h (0 Bft) 0 min 0,0 km/h (0 Bft)
09.03.2010 08:50 10,8 C -2,1 C 0,0 UV-I 0,0 C 37 % 80 % 0 % 1024,8 hPa 0,0 l/m 0,0 km/h (0 Bft) 0 min 0,0 km/h (0 Bft)
09.03.2010 08:52 11,0 C -1,9 C 0,0 UV-I 0,0 C 37 % 80 % 0 % 1025,9 hPa 0,0 l/m 0,0 km/h (0 Bft) 0 min 0,0 km/h (0 Bft)
09.03.2010 08:54 10,8 C -2,0 C 0,0 UV-I 0,0 C 37 % 80 % 0 % 1025,9 hPa 0,0 l/m 0,0 km/h (0 Bft) 0 min 0,0 km/h (0 Bft)
09.03.2010 08:56 11,0 C -2,0 C 0,0 UV-I 0,0 C 37 % 80 % 0 % 1025,9 hPa 0,0 l/m 0,0 km/h (0 Bft) 0 min 0,0 km/h (0 Bft)
09.03.2010 08:58 10,8 C -1,9 C 0,0 UV-I 0,0 C 37 % 80 % 0 % 1025,9 hPa 0,0 l/m 0,0 km/h (0 Bft) 0 min 0,0 km/h (0 Bft)
09.03.2010 09:00 11,0 C -1,9 C 0,1 UV-I 0,0 C 37 % 80 % 0 % 1025,9 hPa 0,0 l/m 0,4 km/h (0 Bft) 0 min 4,1 km/h (1 Bft)
09.03.2010 09:02 11,0 C -1,7 C 0,1 UV-I 0,0 C 37 % 80 % 0 % 1025,9 hPa 0,0 l/m 0,4 km/h (0 Bft) 0 min 2,4 km/h (1 Bft)
09.03.2010 09:04 11,0 C -1,7 C 0,1 UV-I 0,0 C 37 % 80 % 0 % 1025,9 hPa 0,0 l/m 0,4 km/h (0 Bft) 0 min 0,0 km/h (0 Bft)
09.03.2010 09:06 11,0 C -1,7 C 0,1 UV-I 0,0 C 37 % 79 % 0 % 1025,9 hPa 0,0 l/m 0,4 km/h (0 Bft) 0 min 0,0 km/h (0 Bft)
09.03.2010 09:08 11,0 C -1,7 C 0,1 UV-I 0,3 C 37 % 79 % 9 % 1025,9 hPa 0,0 l/m 1,2 km/h (1 Bft) 0 min 3,4 km/h (1 Bft)
09.03.2010 09:10 11,0 C -1,6 C 0,1 UV-I 2,1 C 37 % 79 % 60 % 1025,9 hPa 0,0 l/m 1,2 km/h (1 Bft) 0 min 2,6 km/h (1 Bft)
09.03.2010 09:12 11,0 C -1,6 C 0,1 UV-I 3,8 C 37 % 79 % 100 % 1025,9 hPa 0,0 l/m 1,2 km/h (1 Bft) 2 min 0,0 km/h (0 Bft)
09.03.2010 09:14 11,0 C -1,5 C 0,1 UV-I 4,7 C 37 % 79 % 100 % 1025,9 hPa 0,0 l/m 1,6 km/h (1 Bft) 2 min 3,4 km/h (1 Bft)
09.03.2010 09:16 11,0 C -1,5 C 0,1 UV-I 5,8 C 37 % 78 % 100 % 1025,9 hPa 0,0 l/m 2,0 km/h (1 Bft) 2 min 0,0 km/h (0 Bft)
09.03.2010 09:18 11,0 C -1,3 C 0,1 UV-I 6,3 C 37 % 78 % 100 % 1025,9 hPa 0,0 l/m 2,0 km/h (1 Bft) 2 min 2,4 km/h (1 Bft)
09.03.2010 09:20 11,0 C -1,3 C 0,3 UV-I 7,0 C 37 % 78 % 100 % 1025,9 hPa 0,0 l/m 1,6 km/h (1 Bft) 2 min 2,9 km/h (1 Bft)
09.03.2010 09:22 11,0 C -1,3 C 0,3 UV-I 7,5 C 37 % 78 % 100 % 1025,9 hPa 0,0 l/m 1,6 km/h (1 Bft) 2 min 3,1 km/h (1 Bft)
09.03.2010 09:24 10,9 C -1,2 C 0,2 UV-I 7,7 C 37 % 78 % 100 % 1025,9 hPa 0,0 l/m 2,0 km/h (1 Bft) 2 min 3,6 km/h (1 Bft)
09.03.2010 09:26 11,0 C -1,1 C 0,2 UV-I 7,9 C 37 % 77 % 100 % 1025,9 hPa 0,0 l/m 2,0 km/h (1 Bft) 2 min 3,6 km/h (1 Bft)
09.03.2010 09:28 11,0 C -0,9 C 0,2 UV-I 8,0 C 37 % 77 % 100 % 1025,9 hPa 0,0 l/m 2,4 km/h (1 Bft) 2 min 3,1 km/h (1 Bft)
09.03.2010 09:32 10,9 C -0,9 C 0,2 UV-I 8,5 C 37 % 77 % 100 % 1025,9 hPa 0,0 l/m 2,4 km/h (1 Bft) 2 min 2,9 km/h (1 Bft)
09.03.2010 09:34 10,9 C -0,9 C 0,1 UV-I 8,8 C 37 % 76 % 100 % 1025,9 hPa 0,0 l/m 1,6 km/h (1 Bft) 2 min 0,0 km/h (0 Bft)
09.03.2010 09:36 10,9 C -0,8 C 0,1 UV-I 9,1 C 37 % 76 % 100 % 1025,9 hPa 0,0 l/m 1,6 km/h (1 Bft) 2 min 2,4 km/h (1 Bft)
09.03.2010 09:38 11,1 C -0,7 C 0,1 UV-I 9,5 C 37 % 76 % 100 % 1025,9 hPa 0,0 l/m 1,2 km/h (1 Bft) 2 min 0,0 km/h (0 Bft)
09.03.2010 09:40 11,1 C -0,5 C 0,3 UV-I 9,5 C 37 % 75 % 100 % 1025,9 hPa 0,0 l/m 0,8 km/h (0 Bft) 2 min 2,6 km/h (1 Bft)
09.03.2010 09:42 11,1 C -0,5 C 0,3 UV-I 9,8 C 37 % 75 % 100 % 1025,9 hPa 0,0 l/m 1,2 km/h (1 Bft) 2 min 0,0 km/h (0 Bft)
09.03.2010 09:44 11,1 C -0,5 C 0,5 UV-I 10,1 C 37 % 75 % 100 % 1025,9 hPa 0,0 l/m 1,2 km/h (1 Bft) 2 min 3,4 km/h (1 Bft)
09.03.2010 09:46 11,1 C -0,3 C 0,5 UV-I 10,2 C 37 % 74 % 100 % 1025,9 hPa 0,0 l/m 1,6 km/h (1 Bft) 2 min 3,8 km/h (1 Bft)
09.03.2010 09:48 11,1 C -0,3 C 0,5 UV-I 10,4 C 37 % 74 % 100 % 1025,9 hPa 0,0 l/m 1,6 km/h (1 Bft) 2 min 3,1 km/h (1 Bft)
09.03.2010 09:50 11,1 C -0,1 C 0,5 UV-I 10,2 C 37 % 74 % 100 % 1025,9 hPa 0,0 l/m 1,6 km/h (1 Bft) 2 min 2,6 km/h (1 Bft)
09.03.2010 09:52 11,1 C -0,1 C 0,5 UV-I 10,3 C 37 % 73 % 100 % 1025,8 hPa 0,0 l/m 2,4 km/h (1 Bft) 2 min 5,1 km/h (1 Bft)
09.03.2010 09:54 11,1 C -0,1 C 0,7 UV-I 10,2 C 37 % 72 % 100 % 1025,8 hPa 0,0 l/m 3,2 km/h (1 Bft) 2 min 3,6 km/h (1 Bft)
09.03.2010 09:56 11,1 C -0,1 C 0,7 UV-I 10,0 C 37 % 72 % 100 % 1025,8 hPa 0,0 l/m 3,6 km/h (1 Bft) 2 min 4,3 km/h (1 Bft)
09.03.2010 09:58 11,1 C 0,1 C 0,7 UV-I 9,5 C 37 % 71 % 100 % 1025,8 hPa 0,0 l/m 4,0 km/h (1 Bft) 2 min 0,0 km/h (0 Bft)
09.03.2010 10:02 11,1 C 0,3 C 0,8 UV-I 9,3 C 37 % 70 % 100 % 1025,8 hPa 0,0 l/m 4,4 km/h (1 Bft) 2 min 5,3 km/h (1 Bft)
09.03.2010 10:04 11,1 C 0,4 C 1,3 UV-I 8,9 C 37 % 69 % 100 % 1025,8 hPa 0,0 l/m 4,4 km/h (1 Bft) 2 min 3,1 km/h (1 Bft)
09.03.2010 10:06 11,2 C 0,4 C 1,3 UV-I 8,8 C 37 % 69 % 100 % 1025,8 hPa 0,0 l/m 4,4 km/h (1 Bft) 2 min 4,6 km/h (1 Bft)
09.03.2010 10:08 11,2 C 0,5 C 1,3 UV-I 8,7 C 37 % 69 % 100 % 1025,8 hPa 0,0 l/m 4,0 km/h (1 Bft) 2 min 3,6 km/h (1 Bft)
09.03.2010 10:10 11,2 C 0,4 C 1,5 UV-I 8,9 C 37 % 69 % 100 % 1025,8 hPa 0,0 l/m 4,4 km/h (1 Bft) 2 min 5,1 km/h (1 Bft)
09.03.2010 10:12 11,2 C 0,5 C 1,5 UV-I 8,9 C 37 % 69 % 100 % 1026,3 hPa 0,0 l/m 4,0 km/h (1 Bft) 2 min 3,1 km/h (1 Bft)
09.03.2010 10:14 11,2 C 0,6 C 2,1 UV-I 8,9 C 37 % 69 % 100 % 1026,3 hPa 0,0 l/m 3,2 km/h (1 Bft) 2 min 2,4 km/h (1 Bft)
09.03.2010 10:16 11,2 C 0,7 C 2,1 UV-I 8,9 C 37 % 69 % 100 % 1026,3 hPa 0,0 l/m 2,4 km/h (1 Bft) 2 min 0,0 km/h (0 Bft)
09.03.2010 10:18 11,2 C 0,6 C 2,1 UV-I 9,3 C 37 % 69 % 100 % 1026,3 hPa 0,0 l/m 2,0 km/h (1 Bft) 2 min 2,9 km/h (1 Bft)
09.03.2010 10:20 11,2 C 0,8 C 2,4 UV-I 9,2 C 37 % 68 % 100 % 1026,3 hPa 0,0 l/m 2,4 km/h (1 Bft) 2 min 2,9 km/h (1 Bft)
09.03.2010 10:22 11,2 C 0,8 C 2,4 UV-I 9,3 C 37 % 68 % 100 % 1026,3 hPa 0,0 l/m 2,8 km/h (1 Bft) 2 min 3,8 km/h (1 Bft)
09.03.2010 10:24 11,1 C 0,8 C 2,8 UV-I 9,3 C 37 % 68 % 100 % 1026,3 hPa 0,0 l/m 3,2 km/h (1 Bft) 2 min 5,3 km/h (1 Bft)
09.03.2010 10:26 11,1 C 0,8 C 2,8 UV-I 9,3 C 37 % 68 % 100 % 1026,3 hPa 0,0 l/m 3,6 km/h (1 Bft) 2 min 3,8 km/h (1 Bft)
09.03.2010 10:28 11,1 C 0,8 C 2,8 UV-I 9,3 C 37 % 67 % 100 % 1026,3 hPa 0,0 l/m 4,0 km/h (1 Bft) 2 min 4,6 km/h (1 Bft)
09.03.2010 10:30 11,1 C 0,9 C 3,0 UV-I 9,1 C 37 % 67 % 100 % 1026,3 hPa 0,0 l/m 4,4 km/h (1 Bft) 2 min 3,8 km/h (1 Bft)
09.03.2010 10:32 11,1 C 1,1 C 3,0 UV-I 9,0 C 37 % 67 % 100 % 1026,3 hPa 0,0 l/m 3,6 km/h (1 Bft) 2 min 0,0 km/h (0 Bft)
09.03.2010 10:34 11,3 C 1,1 C 2,6 UV-I 9,2 C 37 % 67 % 100 % 1026,3 hPa 0,0 l/m 2,8 km/h (1 Bft) 2 min 3,1 km/h (1 Bft)
09.03.2010 10:36 11,2 C 1,1 C 2,6 UV-I 9,3 C 37 % 66 % 100 % 1026,3 hPa 0,0 l/m 2,8 km/h (1 Bft) 2 min 2,4 km/h (1 Bft)
09.03.2010 10:38 11,2 C 1,2 C 2,6 UV-I 9,3 C 37 % 67 % 100 % 1026,3 hPa 0,0 l/m 2,4 km/h (1 Bft) 2 min 3,1 km/h (1 Bft)
09.03.2010 10:40 11,3 C 1,3 C 3,5 UV-I 9,2 C 37 % 66 % 100 % 1026,3 hPa 0,0 l/m 2,4 km/h (1 Bft) 2 min 0,0 km/h (0 Bft)
09.03.2010 10:42 11,2 C 1,5 C 3,5 UV-I 9,0 C 37 % 66 % 100 % 1026,3 hPa 0,0 l/m 2,0 km/h (1 Bft) 2 min 4,6 km/h (1 Bft)
09.03.2010 10:44 11,2 C 1,5 C 3,5 UV-I 8,9 C 37 % 65 % 100 % 1026,3 hPa 0,0 l/m 2,8 km/h (1 Bft) 2 min 9,6 km/h (2 Bft)
09.03.2010 10:46 11,2 C 1,5 C 3,5 UV-I 8,8 C 37 % 65 % 100 % 1026,3 hPa 0,0 l/m 3,2 km/h (1 Bft) 2 min 5,5 km/h (1 Bft)
09.03.2010 10:48 11,2 C 1,6 C 3,5 UV-I 8,5 C 37 % 64 % 100 % 1026,3 hPa 0,0 l/m 4,0 km/h (1 Bft) 2 min 3,1 km/h (1 Bft)
09.03.2010 10:50 11,2 C 1,6 C 4,1 UV-I 8,6 C 37 % 65 % 100 % 1026,3 hPa 0,0 l/m 3,2 km/h (1 Bft) 2 min 9,6 km/h (2 Bft)
09.03.2010 10:52 11,2 C 1,6 C 4,1 UV-I 8,8 C 37 % 65 % 100 % 1026,3 hPa 0,0 l/m 3,6 km/h (1 Bft) 2 min 4,3 km/h (1 Bft)
09.03.2010 10:54 11,4 C 1,6 C 4,5 UV-I 8,9 C 37 % 64 % 100 % 1026,3 hPa 0,0 l/m 4,4 km/h (1 Bft) 2 min 3,1 km/h (1 Bft)
09.03.2010 10:56 11,4 C 1,7 C 4,5 UV-I 8,7 C 37 % 63 % 100 % 1026,3 hPa 0,0 l/m 4,0 km/h (1 Bft) 2 min 3,4 km/h (1 Bft)
09.03.2010 10:58 11,4 C 1,9 C 4,5 UV-I 8,5 C 37 % 62 % 100 % 1026,3 hPa 0,0 l/m 3,6 km/h (1 Bft) 2 min 0,0 km/h (0 Bft)
09.03.2010 11:00 11,4 C 1,9 C 4,3 UV-I 8,8 C 37 % 63 % 100 % 1026,3 hPa 0,0 l/m 3,2 km/h (1 Bft) 2 min 0,0 km/h (0 Bft)
09.03.2010 11:02 11,4 C 1,9 C 4,3 UV-I 9,1 C 37 % 63 % 100 % 1026,3 hPa 0,0 l/m 3,6 km/h (1 Bft) 2 min 2,9 km/h (1 Bft)
09.03.2010 11:04 11,4 C 1,9 C 4,5 UV-I 9,2 C 37 % 63 % 100 % 1026,3 hPa 0,0 l/m 3,2 km/h (1 Bft) 2 min 3,1 km/h (1 Bft)
09.03.2010 11:06 11,4 C 1,9 C 4,5 UV-I 9,2 C 37 % 63 % 100 % 1026,3 hPa 0,0 l/m 2,4 km/h (1 Bft) 2 min 5,3 km/h (1 Bft)
09.03.2010 11:08 11,4 C 2,0 C 4,5 UV-I 9,1 C 37 % 61 % 100 % 1026,3 hPa 0,0 l/m 2,8 km/h (1 Bft) 2 min 2,9 km/h (1 Bft)
09.03.2010 11:10 11,4 C 2,1 C 4,7 UV-I 9,0 C 37 % 61 % 100 % 1026,3 hPa 0,0 l/m 2,8 km/h (1 Bft) 2 min 3,1 km/h (1 Bft)
09.03.2010 11:12 11,4 C 2,3 C 4,7 UV-I 9,0 C 37 % 61 % 100 % 1026,3 hPa 0,0 l/m 3,2 km/h (1 Bft) 2 min 5,1 km/h (1 Bft)
09.03.2010 11:14 11,4 C 2,3 C 6,1 UV-I 8,9 C 37 % 60 % 100 % 1026,3 hPa 0,0 l/m 3,6 km/h (1 Bft) 2 min 6,7 km/h (2 Bft)
09.03.2010 11:16 11,5 C 2,3 C 6,1 UV-I 8,8 C 37 % 60 % 100 % 1026,3 hPa 0,0 l/m 4,0 km/h (1 Bft) 2 min 2,9 km/h (1 Bft)
09.03.2010 11:18 11,3 C 2,3 C 6,1 UV-I 8,8 C 37 % 60 % 100 % 1026,3 hPa 0,0 l/m 3,6 km/h (1 Bft) 2 min 3,4 km/h (1 Bft)
09.03.2010 11:20 11,3 C 2,3 C 6,0 UV-I 8,8 C 37 % 60 % 100 % 1026,3 hPa 0,0 l/m 4,0 km/h (1 Bft) 2 min 10,1 km/h (2 Bft)
09.03.2010 11:22 11,5 C 2,2 C 6,0 UV-I 8,8 C 37 % 58 % 100 % 1026,3 hPa 0,0 l/m 5,2 km/h (1 Bft) 2 min 5,3 km/h (1 Bft)
09.03.2010 11:24 11,5 C 2,3 C 7,0 UV-I 8,5 C 37 % 59 % 100 % 1026,3 hPa 0,0 l/m 4,4 km/h (1 Bft) 2 min 3,8 km/h (1 Bft)
09.03.2010 11:26 11,5 C 2,5 C 7,0 UV-I 8,4 C 36 % 58 % 100 % 1026,3 hPa 0,0 l/m 4,4 km/h (1 Bft) 2 min 6,0 km/h (2 Bft)
09.03.2010 11:28 11,4 C 2,5 C 7,0 UV-I 8,4 C 37 % 59 % 100 % 1026,3 hPa 0,0 l/m 4,8 km/h (1 Bft) 2 min 4,3 km/h (1 Bft)
09.03.2010 11:30 11,6 C 2,5 C 6,8 UV-I 8,5 C 37 % 58 % 100 % 1026,3 hPa 0,0 l/m 5,2 km/h (1 Bft) 2 min 5,5 km/h (1 Bft)
09.03.2010 11:32 11,4 C 2,5 C 6,8 UV-I 8,4 C 37 % 58 % 100 % 1026,6 hPa 0,0 l/m 5,2 km/h (1 Bft) 2 min 5,3 km/h (1 Bft)
09.03.2010 11:34 11,6 C 2,5 C 5,9 UV-I 8,2 C 37 % 58 % 100 % 1026,6 hPa 0,0 l/m 5,2 km/h (1 Bft) 2 min 3,8 km/h (1 Bft)
09.03.2010 11:36 11,6 C 2,6 C 5,9 UV-I 8,2 C 37 % 58 % 100 % 1026,6 hPa 0,0 l/m 5,2 km/h (1 Bft) 2 min 4,1 km/h (1 Bft)
09.03.2010 11:38 11,6 C 2,7 C 5,9 UV-I 8,3 C 37 % 58 % 100 % 1026,6 hPa 0,0 l/m 4,0 km/h (1 Bft) 2 min 0,0 km/h (0 Bft)
09.03.2010 11:40 11,6 C 2,7 C 7,0 UV-I 8,7 C 37 % 58 % 100 % 1026,6 hPa 0,0 l/m 4,0 km/h (1 Bft) 2 min 2,9 km/h (1 Bft)
09.03.2010 11:42 11,6 C 2,8 C 7,0 UV-I 8,6 C 36 % 58 % 100 % 1026,6 hPa 0,0 l/m 3,2 km/h (1 Bft) 2 min 3,4 km/h (1 Bft)
09.03.2010 11:44 11,6 C 2,8 C 7,0 UV-I 8,8 C 36 % 57 % 100 % 1026,6 hPa 0,0 l/m 3,2 km/h (1 Bft) 2 min 5,3 km/h (1 Bft)
09.03.2010 11:46 11,6 C 2,8 C 7,0 UV-I 8,9 C 36 % 56 % 100 % 1026,6 hPa 0,0 l/m 3,6 km/h (1 Bft) 2 min 4,6 km/h (1 Bft)
09.03.2010 11:48 11,6 C 2,9 C 7,0 UV-I 8,9 C 36 % 57 % 100 % 1026,6 hPa 0,0 l/m 3,6 km/h (1 Bft) 2 min 3,4 km/h (1 Bft)
09.03.2010 11:50 11,6 C 2,8 C 7,0 UV-I 9,0 C 36 % 56 % 100 % 1026,6 hPa 0,0 l/m 4,4 km/h (1 Bft) 2 min 5,5 km/h (1 Bft)
09.03.2010 11:52 11,6 C 2,9 C 7,0 UV-I 8,8 C 36 % 57 % 100 % 1026,6 hPa 0,0 l/m 4,4 km/h (1 Bft) 2 min 2,6 km/h (1 Bft)
09.03.2010 11:54 11,6 C 2,9 C 6,6 UV-I 8,9 C 36 % 56 % 100 % 1026,6 hPa 0,0 l/m 5,2 km/h (1 Bft) 2 min 2,6 km/h (1 Bft)
09.03.2010 11:56 11,6 C 3,1 C 6,6 UV-I 8,8 C 36 % 56 % 100 % 1026,6 hPa 0,0 l/m 4,8 km/h (1 Bft) 2 min 2,9 km/h (1 Bft)
09.03.2010 11:58 11,6 C 3,1 C 6,6 UV-I 8,9 C 36 % 56 % 100 % 1026,6 hPa 0,0 l/m 4,4 km/h (1 Bft) 2 min 3,4 km/h (1 Bft)
09.03.2010 12:00 11,8 C 3,0 C 6,9 UV-I 9,1 C 36 % 55 % 100 % 1026,6 hPa 0,0 l/m 4,4 km/h (1 Bft) 2 min 5,1 km/h (1 Bft)
09.03.2010 12:02 11,8 C 3,1 C 6,9 UV-I 9,0 C 36 % 54 % 100 % 1026,6 hPa 0,0 l/m 4,4 km/h (1 Bft) 2 min 3,8 km/h (1 Bft)
09.03.2010 12:04 11,8 C 3,1 C 6,9 UV-I 9,0 C 36 % 54 % 100 % 1026,6 hPa 0,0 l/m 4,4 km/h (1 Bft) 2 min 3,8 km/h (1 Bft)
09.03.2010 12:06 11,8 C 3,1 C 6,9 UV-I 9,1 C 36 % 55 % 100 % 1026,6 hPa 0,0 l/m 3,6 km/h (1 Bft) 2 min 0,0 km/h (0 Bft)
09.03.2010 12:10 11,9 C 3,2 C 8,8 UV-I 9,0 C 36 % 53 % 100 % 1026,6 hPa 0,0 l/m 4,0 km/h (1 Bft) 2 min 5,5 km/h (1 Bft)
09.03.2010 12:12 11,9 C 3,3 C 8,8 UV-I 8,9 C 36 % 53 % 100 % 1026,6 hPa 0,0 l/m 2,8 km/h (1 Bft) 2 min 3,8 km/h (1 Bft)
09.03.2010 12:14 11,8 C 3,4 C 8,9 UV-I 8,8 C 36 % 53 % 100 % 1026,6 hPa 0,0 l/m 2,8 km/h (1 Bft) 2 min 2,9 km/h (1 Bft)
09.03.2010 12:16 11,8 C 3,5 C 8,9 UV-I 8,7 C 36 % 52 % 100 % 1026,6 hPa 0,0 l/m 4,0 km/h (1 Bft) 2 min 3,4 km/h (1 Bft)
09.03.2010 12:18 12,0 C 3,5 C 8,9 UV-I 8,6 C 36 % 51 % 100 % 1026,6 hPa 0,0 l/m 4,8 km/h (1 Bft) 2 min 6,0 km/h (2 Bft)
09.03.2010 12:20 12,0 C 3,6 C 9,5 UV-I 8,4 C 36 % 52 % 100 % 1026,6 hPa 0,0 l/m 4,4 km/h (1 Bft) 2 min 13,0 km/h (3 Bft)
09.03.2010 12:22 12,0 C 3,5 C 9,5 UV-I 8,5 C 36 % 52 % 100 % 1026,6 hPa 0,0 l/m 5,2 km/h (1 Bft) 2 min 3,1 km/h (1 Bft)
09.03.2010 12:24 11,9 C 3,6 C 10,2 UV-I 8,3 C 36 % 52 % 100 % 1026,6 hPa 0,0 l/m 4,8 km/h (1 Bft) 2 min 5,3 km/h (1 Bft)
09.03.2010 12:26 11,9 C 3,6 C 10,2 UV-I 8,5 C 36 % 51 % 100 % 1026,6 hPa 0,0 l/m 4,0 km/h (1 Bft) 2 min 3,1 km/h (1 Bft)
09.03.2010 12:28 11,9 C 3,7 C 10,2 UV-I 8,5 C 36 % 52 % 100 % 1026,6 hPa 0,0 l/m 4,4 km/h (1 Bft) 2 min 3,8 km/h (1 Bft)
09.03.2010 12:30 12,1 C 3,6 C 11,2 UV-I 8,7 C 36 % 52 % 100 % 1026,6 hPa 0,0 l/m 4,4 km/h (1 Bft) 2 min 4,6 km/h (1 Bft)
09.03.2010 12:32 12,1 C 3,6 C 11,2 UV-I 8,8 C 36 % 52 % 100 % 1026,8 hPa 0,0 l/m 4,4 km/h (1 Bft) 2 min 3,8 km/h (1 Bft)
09.03.2010 12:34 12,1 C 3,7 C 10,0 UV-I 8,6 C 36 % 53 % 100 % 1026,8 hPa 0,0 l/m 4,8 km/h (1 Bft) 2 min 4,1 km/h (1 Bft)
09.03.2010 12:36 12,2 C 3,7 C 10,0 UV-I 8,6 C 36 % 52 % 100 % 1026,8 hPa 0,0 l/m 5,2 km/h (1 Bft) 2 min 0,0 km/h (0 Bft)
09.03.2010 12:40 12,2 C 3,9 C 10,7 UV-I 8,7 C 36 % 52 % 100 % 1026,8 hPa 0,0 l/m 4,4 km/h (1 Bft) 2 min 3,4 km/h (1 Bft)
09.03.2010 12:42 12,3 C 3,8 C 10,7 UV-I 8,9 C 36 % 53 % 100 % 1026,8 hPa 0,0 l/m 4,0 km/h (1 Bft) 2 min 4,3 km/h (1 Bft)
09.03.2010 12:44 12,3 C 3,9 C 10,8 UV-I 8,8 C 36 % 52 % 100 % 1026,8 hPa 0,0 l/m 4,0 km/h (1 Bft) 2 min 3,1 km/h (1 Bft)
09.03.2010 12:46 12,4 C 4,0 C 10,8 UV-I 8,8 C 36 % 52 % 100 % 1026,8 hPa 0,0 l/m 3,6 km/h (1 Bft) 2 min 3,8 km/h (1 Bft)
09.03.2010 12:48 12,4 C 4,0 C 10,8 UV-I 8,9 C 36 % 52 % 100 % 1026,8 hPa 0,0 l/m 4,4 km/h (1 Bft) 2 min 3,4 km/h (1 Bft)
09.03.2010 12:50 12,3 C 4,1 C 7,8 UV-I 8,8 C 36 % 52 % 100 % 1026,8 hPa 0,0 l/m 4,4 km/h (1 Bft) 2 min 2,9 km/h (1 Bft)
09.03.2010 12:52 12,4 C 4,1 C 7,8 UV-I 8,8 C 36 % 51 % 100 % 1026,8 hPa 0,0 l/m 4,8 km/h (1 Bft) 2 min 3,1 km/h (1 Bft)
09.03.2010 12:54 12,6 C 4,3 C 3,7 UV-I 8,5 C 36 % 52 % 100 % 1026,8 hPa 0,0 l/m 5,2 km/h (1 Bft) 2 min 5,1 km/h (1 Bft)
09.03.2010 12:56 12,6 C 4,3 C 3,7 UV-I 8,4 C 36 % 50 % 100 % 1026,8 hPa 0,0 l/m 5,2 km/h (1 Bft) 2 min 3,4 km/h (1 Bft)
09.03.2010 12:58 12,7 C 4,3 C 3,7 UV-I 8,2 C 36 % 50 % 100 % 1026,8 hPa 0,0 l/m 4,8 km/h (1 Bft) 2 min 3,4 km/h (1 Bft)
09.03.2010 13:00 12,8 C 4,3 C 3,6 UV-I 8,2 C 36 % 50 % 100 % 1026,8 hPa 0,0 l/m 4,8 km/h (1 Bft) 2 min 6,7 km/h (2 Bft)
09.03.2010 13:02 12,8 C 4,3 C 3,6 UV-I 8,1 C 36 % 50 % 100 % 1026,8 hPa 0,0 l/m 4,8 km/h (1 Bft) 2 min 3,6 km/h (1 Bft)
09.03.2010 13:04 12,8 C 4,3 C 5,9 UV-I 8,1 C 36 % 50 % 100 % 1026,8 hPa 0,0 l/m 4,4 km/h (1 Bft) 2 min 0,0 km/h (0 Bft)
09.03.2010 13:08 13,2 C 4,3 C 8,4 UV-I 8,3 C 35 % 50 % 100 % 1026,8 hPa 0,0 l/m 4,8 km/h (1 Bft) 2 min 3,1 km/h (1 Bft)
09.03.2010 13:14 13,3 C 4,6 C 9,1 UV-I 8,5 C 35 % 49 % 100 % 1027,7 hPa 0,0 l/m 5,2 km/h (1 Bft) 2 min 3,6 km/h (1 Bft)
09.03.2010 13:16 13,3 C 4,6 C 9,1 UV-I 8,5 C 35 % 49 % 100 % 1027,7 hPa 0,0 l/m 5,2 km/h (1 Bft) 2 min 3,6 km/h (1 Bft)
09.03.2010 13:18 13,4 C 4,7 C 9,1 UV-I 8,4 C 35 % 48 % 100 % 1027,7 hPa 0,0 l/m 5,2 km/h (1 Bft) 2 min 4,6 km/h (1 Bft)
09.03.2010 13:20 13,6 C 4,7 C 8,7 UV-I 8,4 C 35 % 48 % 100 % 1027,7 hPa 0,0 l/m 5,2 km/h (1 Bft) 2 min 4,3 km/h (1 Bft)
09.03.2010 13:22 13,7 C 4,7 C 8,7 UV-I 8,4 C 35 % 48 % 100 % 1027,7 hPa 0,0 l/m 5,2 km/h (1 Bft) 2 min 3,6 km/h (1 Bft)
09.03.2010 13:24 13,6 C 4,7 C 8,7 UV-I 8,7 C 35 % 48 % 100 % 1027,7 hPa 0,0 l/m 4,4 km/h (1 Bft) 2 min 0,0 km/h (0 Bft)
09.03.2010 13:26 13,8 C 4,7 C 8,7 UV-I 8,9 C 34 % 48 % 100 % 1027,7 hPa 0,0 l/m 4,4 km/h (1 Bft) 2 min 6,3 km/h (2 Bft)
09.03.2010 13:28 13,9 C 4,8 C 8,7 UV-I 9,0 C 35 % 48 % 100 % 1027,7 hPa 0,0 l/m 4,0 km/h (1 Bft) 2 min 3,6 km/h (1 Bft)
09.03.2010 13:30 14,0 C 4,8 C 8,8 UV-I 9,2 C 34 % 47 % 100 % 1027,7 hPa 0,0 l/m 3,6 km/h (1 Bft) 2 min 4,3 km/h (1 Bft)
09.03.2010 13:32 14,1 C 4,8 C 8,8 UV-I 9,3 C 34 % 47 % 100 % 1029,2 hPa 0,0 l/m 4,0 km/h (1 Bft) 2 min 6,3 km/h (2 Bft)
09.03.2010 13:34 14,1 C 4,8 C 9,0 UV-I 9,1 C 34 % 46 % 100 % 1029,2 hPa 0,0 l/m 4,8 km/h (1 Bft) 2 min 4,1 km/h (1 Bft)
09.03.2010 13:36 14,1 C 4,9 C 9,0 UV-I 9,0 C 34 % 46 % 100 % 1029,2 hPa 0,0 l/m 4,8 km/h (1 Bft) 2 min 3,8 km/h (1 Bft)
09.03.2010 13:38 14,3 C 4,9 C 9,0 UV-I 9,0 C 34 % 46 % 100 % 1029,2 hPa 0,0 l/m 4,8 km/h (1 Bft) 2 min 5,3 km/h (1 Bft)
09.03.2010 13:40 14,4 C 4,9 C 8,9 UV-I 9,1 C 34 % 46 % 100 % 1029,2 hPa 0,0 l/m 5,2 km/h (1 Bft) 2 min 0,0 km/h (0 Bft)
09.03.2010 13:42 14,3 C 4,9 C 8,9 UV-I 9,0 C 34 % 46 % 100 % 1029,2 hPa 0,0 l/m 5,2 km/h (1 Bft) 2 min 2,6 km/h (1 Bft)
09.03.2010 13:44 14,6 C 4,9 C 8,9 UV-I 9,1 C 34 % 47 % 100 % 1029,2 hPa 0,0 l/m 4,0 km/h (1 Bft) 2 min 3,4 km/h (1 Bft)
09.03.2010 13:46 14,6 C 4,9 C 8,9 UV-I 9,3 C 34 % 47 % 100 % 1029,2 hPa 0,0 l/m 4,0 km/h (1 Bft) 2 min 4,3 km/h (1 Bft)
09.03.2010 13:48 14,6 C 5,1 C 8,9 UV-I 9,3 C 34 % 48 % 100 % 1029,2 hPa 0,0 l/m 4,0 km/h (1 Bft) 2 min 5,8 km/h (2 Bft)
09.03.2010 13:50 14,8 C 5,1 C 9,0 UV-I 9,3 C 33 % 47 % 100 % 1029,2 hPa 0,0 l/m 4,4 km/h (1 Bft) 2 min 5,5 km/h (1 Bft)
09.03.2010 13:52 14,8 C 5,1 C 9,0 UV-I 9,1 C 33 % 47 % 100 % 1032,3 hPa 0,0 l/m 4,4 km/h (1 Bft) 2 min 2,4 km/h (1 Bft)
09.03.2010 13:56 14,8 C 5,0 C 8,7 UV-I 9,0 C 33 % 46 % 100 % 1032,3 hPa 0,0 l/m 5,6 km/h (1 Bft) 2 min 4,1 km/h (1 Bft)
09.03.2010 13:58 15,0 C 5,0 C 8,7 UV-I 8,7 C 33 % 46 % 100 % 1032,3 hPa 0,0 l/m 5,2 km/h (1 Bft) 2 min 2,9 km/h (1 Bft)
09.03.2010 14:00 15,0 C 5,0 C 8,7 UV-I 8,6 C 33 % 46 % 100 % 1032,3 hPa 0,0 l/m 5,2 km/h (1 Bft) 2 min 5,8 km/h (2 Bft)
09.03.2010 14:02 15,1 C 5,0 C 8,7 UV-I 8,7 C 32 % 46 % 100 % 1032,3 hPa 0,0 l/m 4,8 km/h (1 Bft) 2 min 6,7 km/h (2 Bft)
09.03.2010 14:04 15,2 C 5,1 C 9,2 UV-I 8,5 C 32 % 45 % 100 % 1032,3 hPa 0,0 l/m 5,6 km/h (1 Bft) 2 min 5,1 km/h (1 Bft)
09.03.2010 14:06 15,1 C 5,1 C 9,2 UV-I 8,4 C 32 % 46 % 100 % 1032,3 hPa 0,0 l/m 5,2 km/h (1 Bft) 2 min 2,6 km/h (1 Bft)
09.03.2010 14:08 15,3 C 5,1 C 9,2 UV-I 8,5 C 32 % 45 % 100 % 1032,3 hPa 0,0 l/m 4,8 km/h (1 Bft) 2 min 3,8 km/h (1 Bft)
09.03.2010 14:10 15,3 C 5,2 C 9,0 UV-I 8,5 C 32 % 45 % 100 % 1032,3 hPa 0,0 l/m 4,8 km/h (1 Bft) 2 min 3,8 km/h (1 Bft)
09.03.2010 14:12 15,4 C 5,2 C 9,0 UV-I 8,6 C 32 % 45 % 100 % 1032,6 hPa 0,0 l/m 4,4 km/h (1 Bft) 2 min 4,1 km/h (1 Bft)
09.03.2010 14:14 15,3 C 5,3 C 9,2 UV-I 8,7 C 32 % 45 % 100 % 1032,6 hPa 0,0 l/m 4,0 km/h (1 Bft) 2 min 3,6 km/h (1 Bft)
09.03.2010 14:16 15,5 C 5,2 C 9,2 UV-I 9,0 C 31 % 45 % 100 % 1032,6 hPa 0,0 l/m 4,0 km/h (1 Bft) 2 min 4,1 km/h (1 Bft)
09.03.2010 14:18 15,6 C 5,3 C 9,2 UV-I 9,0 C 31 % 44 % 100 % 1032,6 hPa 0,0 l/m 4,0 km/h (1 Bft) 2 min 4,1 km/h (1 Bft)
09.03.2010 14:20 15,6 C 5,3 C 8,7 UV-I 9,1 C 31 % 43 % 100 % 1032,6 hPa 0,0 l/m 4,4 km/h (1 Bft) 2 min 5,8 km/h (2 Bft)
09.03.2010 14:22 15,6 C 5,3 C 8,7 UV-I 8,9 C 31 % 43 % 100 % 1032,6 hPa 0,0 l/m 4,0 km/h (1 Bft) 2 min 0,0 km/h (0 Bft)
09.03.2010 14:24 15,7 C 5,5 C 8,2 UV-I 8,8 C 31 % 42 % 100 % 1032,6 hPa 0,0 l/m 4,0 km/h (1 Bft) 2 min 3,1 km/h (1 Bft)
09.03.2010 14:26 15,6 C 5,5 C 8,2 UV-I 8,8 C 31 % 43 % 100 % 1032,6 hPa 0,0 l/m 3,6 km/h (1 Bft) 2 min 4,8 km/h (1 Bft)
09.03.2010 14:28 15,8 C 5,4 C 8,2 UV-I 9,1 C 30 % 42 % 100 % 1032,6 hPa 0,0 l/m 4,0 km/h (1 Bft) 2 min 2,9 km/h (1 Bft)
09.03.2010 14:30 15,8 C 5,4 C 9,3 UV-I 9,0 C 30 % 42 % 100 % 1032,6 hPa 0,0 l/m 4,0 km/h (1 Bft) 2 min 4,8 km/h (1 Bft)
09.03.2010 14:32 15,9 C 5,5 C 9,3 UV-I 8,8 C 30 % 42 % 100 % 1031,3 hPa 0,0 l/m 4,0 km/h (1 Bft) 2 min 3,6 km/h (1 Bft)
09.03.2010 14:34 16,0 C 5,4 C 9,3 UV-I 8,6 C 30 % 42 % 100 % 1031,3 hPa 0,0 l/m 4,8 km/h (1 Bft) 2 min 3,6 km/h (1 Bft)
09.03.2010 14:36 16,0 C 5,5 C 9,3 UV-I 8,3 C 30 % 42 % 100 % 1031,3 hPa 0,0 l/m 5,6 km/h (1 Bft) 2 min 3,4 km/h (1 Bft)
09.03.2010 14:38 16,0 C 5,5 C 9,3 UV-I 8,2 C 30 % 43 % 100 % 1031,3 hPa 0,0 l/m 5,2 km/h (1 Bft) 2 min 2,4 km/h (1 Bft)
09.03.2010 14:40 15,9 C 5,6 C 8,7 UV-I 8,1 C 30 % 43 % 100 % 1031,3 hPa 0,0 l/m 4,4 km/h (1 Bft) 2 min 0,0 km/h (0 Bft)
09.03.2010 14:42 16,1 C 5,7 C 8,7 UV-I 8,2 C 30 % 43 % 100 % 1031,3 hPa 0,0 l/m 3,6 km/h (1 Bft) 2 min 2,6 km/h (1 Bft)
09.03.2010 14:44 16,1 C 5,6 C 8,0 UV-I 8,3 C 30 % 44 % 100 % 1031,3 hPa 0,0 l/m 3,2 km/h (1 Bft) 2 min 4,1 km/h (1 Bft)
09.03.2010 14:46 16,2 C 5,7 C 8,0 UV-I 8,4 C 30 % 44 % 100 % 1031,3 hPa 0,0 l/m 2,4 km/h (1 Bft) 2 min 3,1 km/h (1 Bft)
09.03.2010 14:48 16,2 C 5,7 C 8,0 UV-I 8,5 C 30 % 44 % 100 % 1031,3 hPa 0,0 l/m 2,8 km/h (1 Bft) 2 min 4,6 km/h (1 Bft)
09.03.2010 14:50 16,2 C 5,7 C 8,0 UV-I 8,2 C 29 % 42 % 100 % 1031,3 hPa 0,0 l/m 4,8 km/h (1 Bft) 2 min 15,6 km/h (3 Bft)
09.03.2010 14:52 16,3 C 5,6 C 8,0 UV-I 7,8 C 29 % 42 % 100 % 1030,8 hPa 0,0 l/m 5,6 km/h (1 Bft) 2 min 4,8 km/h (1 Bft)
09.03.2010 14:54 16,2 C 5,7 C 7,2 UV-I 7,5 C 29 % 42 % 100 % 1030,8 hPa 0,0 l/m 6,0 km/h (2 Bft) 2 min 5,1 km/h (1 Bft)
09.03.2010 14:56 16,4 C 5,6 C 7,2 UV-I 7,5 C 29 % 42 % 100 % 1030,8 hPa 0,0 l/m 6,8 km/h (2 Bft) 2 min 0,0 km/h (0 Bft)
09.03.2010 14:58 16,4 C 5,7 C 7,2 UV-I 7,4 C 29 % 41 % 100 % 1030,8 hPa 0,0 l/m 6,8 km/h (2 Bft) 2 min 3,1 km/h (1 Bft)
09.03.2010 15:00 16,4 C 5,7 C 7,2 UV-I 7,4 C 29 % 41 % 100 % 1030,8 hPa 0,0 l/m 5,6 km/h (1 Bft) 2 min 5,3 km/h (1 Bft)
09.03.2010 15:02 16,5 C 5,7 C 7,2 UV-I 7,3 C 29 % 41 % 100 % 1030,8 hPa 0,0 l/m 6,0 km/h (2 Bft) 2 min 3,8 km/h (1 Bft)
09.03.2010 15:04 16,5 C 5,7 C 6,5 UV-I 7,1 C 29 % 41 % 100 % 1030,8 hPa 0,0 l/m 5,6 km/h (1 Bft) 2 min 5,8 km/h (2 Bft)
09.03.2010 15:06 16,5 C 5,7 C 6,5 UV-I 7,1 C 29 % 41 % 100 % 1030,8 hPa 0,0 l/m 5,2 km/h (1 Bft) 2 min 3,1 km/h (1 Bft)
09.03.2010 15:08 16,6 C 5,8 C 6,5 UV-I 7,0 C 29 % 41 % 100 % 1030,8 hPa 0,0 l/m 5,2 km/h (1 Bft) 2 min 4,1 km/h (1 Bft)
09.03.2010 15:10 16,6 C 5,9 C 6,1 UV-I 7,0 C 29 % 41 % 100 % 1030,8 hPa 0,0 l/m 5,2 km/h (1 Bft) 2 min 3,6 km/h (1 Bft)
09.03.2010 15:12 16,6 C 5,9 C 6,1 UV-I 7,1 C 29 % 40 % 100 % 1030,2 hPa 0,0 l/m 4,8 km/h (1 Bft) 2 min 3,8 km/h (1 Bft)
09.03.2010 15:14 16,7 C 5,9 C 6,0 UV-I 7,1 C 29 % 40 % 100 % 1030,2 hPa 0,0 l/m 4,8 km/h (1 Bft) 2 min 5,1 km/h (1 Bft)
09.03.2010 15:16 16,7 C 5,9 C 6,0 UV-I 7,1 C 29 % 40 % 100 % 1030,2 hPa 0,0 l/m 4,4 km/h (1 Bft) 2 min 2,4 km/h (1 Bft)
09.03.2010 15:18 16,8 C 5,9 C 6,0 UV-I 7,2 C 29 % 39 % 100 % 1030,2 hPa 0,0 l/m 4,8 km/h (1 Bft) 2 min 0,0 km/h (0 Bft)
09.03.2010 15:20 16,8 C 5,9 C 6,2 UV-I 7,3 C 29 % 39 % 100 % 1030,2 hPa 0,0 l/m 5,2 km/h (1 Bft) 2 min 8,2 km/h (2 Bft)
09.03.2010 15:22 16,8 C 6,0 C 6,2 UV-I 7,2 C 29 % 39 % 100 % 1030,2 hPa 0,0 l/m 5,2 km/h (1 Bft) 2 min 5,5 km/h (1 Bft)
09.03.2010 15:24 16,9 C 6,0 C 6,0 UV-I 7,1 C 29 % 38 % 100 % 1030,2 hPa 0,0 l/m 5,2 km/h (1 Bft) 2 min 5,1 km/h (1 Bft)
09.03.2010 15:26 16,9 C 6,0 C 6,0 UV-I 7,0 C 29 % 37 % 100 % 1030,2 hPa 0,0 l/m 5,2 km/h (1 Bft) 2 min 3,8 km/h (1 Bft)
09.03.2010 15:28 16,9 C 6,0 C 6,0 UV-I 7,0 C 29 % 36 % 100 % 1030,2 hPa 0,0 l/m 5,2 km/h (1 Bft) 2 min 3,8 km/h (1 Bft)
09.03.2010 15:30 17,0 C 6,0 C 6,1 UV-I 7,0 C 29 % 35 % 100 % 1030,2 hPa 0,0 l/m 6,0 km/h (2 Bft) 2 min 5,1 km/h (1 Bft)
09.03.2010 15:32 17,0 C 5,9 C 6,1 UV-I 7,1 C 29 % 36 % 100 % 1031,2 hPa 0,0 l/m 5,2 km/h (1 Bft) 2 min 2,6 km/h (1 Bft)
09.03.2010 15:34 17,0 C 6,0 C 5,6 UV-I 7,0 C 29 % 36 % 100 % 1031,2 hPa 0,0 l/m 5,2 km/h (1 Bft) 2 min 4,6 km/h (1 Bft)
09.03.2010 15:36 17,0 C 6,0 C 5,6 UV-I 7,0 C 29 % 36 % 100 % 1031,2 hPa 0,0 l/m 5,2 km/h (1 Bft) 2 min 6,5 km/h (2 Bft)
09.03.2010 15:38 17,1 C 6,0 C 5,6 UV-I 7,0 C 28 % 35 % 100 % 1031,2 hPa 0,0 l/m 4,8 km/h (1 Bft) 2 min 0,0 km/h (0 Bft)
09.03.2010 15:40 17,1 C 6,0 C 5,5 UV-I 7,0 C 28 % 35 % 100 % 1031,2 hPa 0,0 l/m 4,8 km/h (1 Bft) 2 min 0,0 km/h (0 Bft)
09.03.2010 15:42 17,2 C 6,0 C 5,5 UV-I 7,1 C 28 % 35 % 100 % 1031,2 hPa 0,0 l/m 4,4 km/h (1 Bft) 2 min 4,3 km/h (1 Bft)
09.03.2010 15:44 17,2 C 6,1 C 4,4 UV-I 7,1 C 28 % 35 % 100 % 1031,2 hPa 0,0 l/m 4,8 km/h (1 Bft) 2 min 4,1 km/h (1 Bft)
09.03.2010 15:46 17,2 C 6,1 C 4,4 UV-I 7,0 C 28 % 35 % 100 % 1031,2 hPa 0,0 l/m 4,4 km/h (1 Bft) 2 min 0,0 km/h (0 Bft)
09.03.2010 15:48 17,2 C 6,2 C 4,4 UV-I 7,0 C 28 % 35 % 100 % 1031,2 hPa 0,0 l/m 3,2 km/h (1 Bft) 2 min 2,4 km/h (1 Bft)
09.03.2010 15:50 17,2 C 6,3 C 3,3 UV-I 6,9 C 28 % 35 % 100 % 1031,2 hPa 0,0 l/m 3,6 km/h (1 Bft) 2 min 2,9 km/h (1 Bft)
09.03.2010 15:52 17,2 C 6,2 C 3,3 UV-I 7,0 C 28 % 34 % 100 % 1030,3 hPa 0,0 l/m 4,0 km/h (1 Bft) 2 min 2,4 km/h (1 Bft)
09.03.2010 15:54 17,2 C 6,3 C 3,1 UV-I 6,9 C 28 % 34 % 100 % 1030,3 hPa 0,0 l/m 4,0 km/h (1 Bft) 2 min 2,9 km/h (1 Bft)
09.03.2010 15:56 17,2 C 6,2 C 3,1 UV-I 7,0 C 28 % 34 % 100 % 1030,3 hPa 0,0 l/m 4,0 km/h (1 Bft) 2 min 3,8 km/h (1 Bft)
09.03.2010 15:58 17,2 C 6,3 C 3,1 UV-I 6,7 C 28 % 34 % 100 % 1030,3 hPa 0,0 l/m 4,4 km/h (1 Bft) 2 min 0,0 km/h (0 Bft)
09.03.2010 16:00 17,4 C 6,3 C 2,8 UV-I 6,7 C 28 % 33 % 100 % 1030,3 hPa 0,0 l/m 4,8 km/h (1 Bft) 2 min 3,8 km/h (1 Bft)
09.03.2010 16:02 17,4 C 6,4 C 2,8 UV-I 6,7 C 28 % 34 % 100 % 1030,3 hPa 0,0 l/m 4,0 km/h (1 Bft) 2 min 2,9 km/h (1 Bft)
09.03.2010 16:04 17,4 C 6,4 C 2,5 UV-I 6,7 C 28 % 32 % 100 % 1030,3 hPa 0,0 l/m 4,4 km/h (1 Bft) 2 min 2,9 km/h (1 Bft)
09.03.2010 16:06 17,4 C 6,4 C 2,5 UV-I 6,6 C 28 % 32 % 100 % 1030,3 hPa 0,0 l/m 4,4 km/h (1 Bft) 2 min 8,2 km/h (2 Bft)
09.03.2010 16:08 17,4 C 6,3 C 2,5 UV-I 6,5 C 28 % 32 % 100 % 1030,3 hPa 0,0 l/m 4,8 km/h (1 Bft) 2 min 3,6 km/h (1 Bft)
09.03.2010 16:10 17,4 C 6,3 C 2,3 UV-I 6,3 C 28 % 32 % 100 % 1030,3 hPa 0,0 l/m 5,2 km/h (1 Bft) 2 min 7,2 km/h (2 Bft)
09.03.2010 16:12 17,4 C 6,2 C 2,3 UV-I 6,4 C 28 % 33 % 100 % 1028,9 hPa 0,0 l/m 5,2 km/h (1 Bft) 2 min 4,8 km/h (1 Bft)
09.03.2010 16:14 17,4 C 6,3 C 2,1 UV-I 6,2 C 28 % 32 % 100 % 1028,9 hPa 0,0 l/m 5,6 km/h (1 Bft) 2 min 10,6 km/h (2 Bft)
09.03.2010 16:16 17,4 C 6,3 C 2,1 UV-I 6,1 C 28 % 32 % 100 % 1028,9 hPa 0,0 l/m 5,6 km/h (1 Bft) 2 min 4,3 km/h (1 Bft)
09.03.2010 16:18 17,4 C 6,3 C 2,1 UV-I 6,0 C 28 % 32 % 100 % 1028,9 hPa 0,0 l/m 4,8 km/h (1 Bft) 2 min 5,8 km/h (2 Bft)
09.03.2010 16:22 17,4 C 6,3 C 2,1 UV-I 5,7 C 28 % 32 % 100 % 1028,9 hPa 0,0 l/m 5,6 km/h (1 Bft) 2 min 4,8 km/h (1 Bft)
09.03.2010 16:24 17,4 C 6,3 C 1,7 UV-I 5,6 C 28 % 33 % 100 % 1028,9 hPa 0,0 l/m 5,6 km/h (1 Bft) 2 min 3,4 km/h (1 Bft)
09.03.2010 16:26 17,4 C 6,3 C 1,7 UV-I 5,6 C 28 % 32 % 100 % 1028,9 hPa 0,0 l/m 5,6 km/h (1 Bft) 2 min 3,8 km/h (1 Bft)
09.03.2010 16:28 17,4 C 6,3 C 1,7 UV-I 5,6 C 28 % 32 % 100 % 1028,9 hPa 0,0 l/m 6,0 km/h (2 Bft) 2 min 5,8 km/h (2 Bft)
09.03.2010 16:30 17,4 C 6,2 C 1,5 UV-I 5,5 C 28 % 32 % 100 % 1028,9 hPa 0,0 l/m 6,0 km/h (2 Bft) 2 min 4,3 km/h (1 Bft)
09.03.2010 16:32 17,4 C 6,2 C 1,5 UV-I 5,5 C 28 % 32 % 100 % 1028,3 hPa 0,0 l/m 5,6 km/h (1 Bft) 2 min 4,1 km/h (1 Bft)
09.03.2010 16:34 17,4 C 6,3 C 1,6 UV-I 5,3 C 28 % 32 % 100 % 1028,3 hPa 0,0 l/m 5,2 km/h (1 Bft) 2 min 2,9 km/h (1 Bft)
09.03.2010 16:36 17,4 C 6,2 C 1,6 UV-I 5,4 C 28 % 32 % 100 % 1028,3 hPa 0,0 l/m 5,2 km/h (1 Bft) 2 min 6,3 km/h (2 Bft)
09.03.2010 16:38 17,4 C 6,3 C 1,6 UV-I 5,2 C 28 % 32 % 100 % 1028,3 hPa 0,0 l/m 4,8 km/h (1 Bft) 2 min 0,0 km/h (0 Bft)
09.03.2010 16:40 17,4 C 6,2 C 1,4 UV-I 5,3 C 28 % 32 % 100 % 1028,3 hPa 0,0 l/m 4,8 km/h (1 Bft) 2 min 10,6 km/h (2 Bft)
09.03.2010 16:42 17,4 C 6,1 C 1,4 UV-I 5,2 C 28 % 31 % 100 % 1028,3 hPa 0,0 l/m 5,2 km/h (1 Bft) 2 min 3,8 km/h (1 Bft)
09.03.2010 16:44 17,4 C 6,1 C 1,1 UV-I 5,1 C 28 % 32 % 100 % 1028,3 hPa 0,0 l/m 4,8 km/h (1 Bft) 2 min 2,6 km/h (1 Bft)
09.03.2010 16:46 17,4 C 6,2 C 1,1 UV-I 5,0 C 28 % 33 % 100 % 1028,3 hPa 0,0 l/m 4,4 km/h (1 Bft) 2 min 3,8 km/h (1 Bft)
09.03.2010 16:48 17,4 C 6,2 C 1,1 UV-I 5,0 C 28 % 32 % 100 % 1028,3 hPa 0,0 l/m 4,8 km/h (1 Bft) 2 min 6,5 km/h (2 Bft)
09.03.2010 16:50 17,2 C 6,2 C 1,1 UV-I 4,8 C 28 % 32 % 100 % 1028,3 hPa 0,0 l/m 5,2 km/h (1 Bft) 2 min 6,3 km/h (2 Bft)
09.03.2010 16:52 17,2 C 6,1 C 1,1 UV-I 4,8 C 28 % 32 % 100 % 1027,6 hPa 0,0 l/m 4,8 km/h (1 Bft) 2 min 3,8 km/h (1 Bft)
09.03.2010 16:56 17,3 C 6,0 C 1,2 UV-I 4,7 C 28 % 32 % 100 % 1027,6 hPa 0,0 l/m 4,8 km/h (1 Bft) 2 min 4,3 km/h (1 Bft)
09.03.2010 16:58 17,3 C 6,0 C 1,2 UV-I 4,5 C 28 % 32 % 100 % 1027,6 hPa 0,0 l/m 4,8 km/h (1 Bft) 2 min 4,8 km/h (1 Bft)
09.03.2010 17:00 17,2 C 6,1 C 1,0 UV-I 4,2 C 28 % 32 % 100 % 1027,6 hPa 0,0 l/m 4,4 km/h (1 Bft) 2 min 2,6 km/h (1 Bft)
09.03.2010 17:02 17,2 C 5,9 C 1,0 UV-I 4,3 C 28 % 32 % 100 % 1027,6 hPa 0,0 l/m 4,0 km/h (1 Bft) 2 min 3,4 km/h (1 Bft)
09.03.2010 17:04 17,2 C 6,0 C 0,8 UV-I 4,1 C 28 % 32 % 100 % 1027,6 hPa 0,0 l/m 4,0 km/h (1 Bft) 2 min 2,6 km/h (1 Bft)
09.03.2010 17:06 17,1 C 6,0 C 0,8 UV-I 4,0 C 28 % 32 % 100 % 1027,6 hPa 0,0 l/m 4,0 km/h (1 Bft) 2 min 3,8 km/h (1 Bft)
09.03.2010 17:08 17,1 C 5,9 C 0,8 UV-I 4,0 C 28 % 32 % 100 % 1027,6 hPa 0,0 l/m 4,0 km/h (1 Bft) 2 min 6,0 km/h (2 Bft)
09.03.2010 17:10 17,0 C 5,9 C 0,4 UV-I 3,7 C 28 % 31 % 100 % 1027,6 hPa 0,0 l/m 4,4 km/h (1 Bft) 2 min 2,9 km/h (1 Bft)
09.03.2010 17:14 17,0 C 5,6 C 0,1 UV-I 3,5 C 28 % 32 % 100 % 1027,2 hPa 0,0 l/m 4,8 km/h (1 Bft) 2 min 4,1 km/h (1 Bft)
09.03.2010 17:16 16,9 C 5,6 C 0,1 UV-I 3,3 C 28 % 32 % 94 % 1027,2 hPa 0,0 l/m 4,8 km/h (1 Bft) 2 min 2,9 km/h (1 Bft)
09.03.2010 17:18 16,9 C 5,6 C 0,1 UV-I 3,2 C 28 % 33 % 91 % 1027,2 hPa 0,0 l/m 4,4 km/h (1 Bft) 2 min 2,4 km/h (1 Bft)
09.03.2010 17:20 16,8 C 5,5 C 0,2 UV-I 3,2 C 28 % 33 % 91 % 1027,2 hPa 0,0 l/m 3,2 km/h (1 Bft) 2 min 0,0 km/h (0 Bft)
09.03.2010 17:24 16,8 C 5,6 C 0,4 UV-I 3,2 C 28 % 34 % 91 % 1027,2 hPa 0,0 l/m 2,8 km/h (1 Bft) 2 min 4,6 km/h (1 Bft)
09.03.2010 17:26 16,7 C 5,6 C 0,4 UV-I 3,0 C 28 % 35 % 86 % 1027,2 hPa 0,0 l/m 1,6 km/h (1 Bft) 2 min 5,1 km/h (1 Bft)
09.03.2010 17:28 16,7 C 5,6 C 0,4 UV-I 2,9 C 28 % 35 % 83 % 1027,2 hPa 0,0 l/m 1,6 km/h (1 Bft) 2 min 3,1 km/h (1 Bft)
09.03.2010 17:30 16,7 C 5,6 C 0,2 UV-I 2,7 C 28 % 35 % 77 % 1027,2 hPa 0,0 l/m 2,0 km/h (1 Bft) 2 min 4,6 km/h (1 Bft)
09.03.2010 17:32 16,6 C 5,5 C 0,2 UV-I 2,5 C 28 % 35 % 71 % 1026,4 hPa 0,0 l/m 2,8 km/h (1 Bft) 2 min 3,4 km/h (1 Bft)
09.03.2010 17:34 16,6 C 5,4 C 0,0 UV-I 2,4 C 28 % 35 % 69 % 1026,4 hPa 0,0 l/m 2,4 km/h (1 Bft) 2 min 0,0 km/h (0 Bft)
09.03.2010 17:36 16,6 C 5,5 C 0,0 UV-I 2,0 C 28 % 36 % 57 % 1026,4 hPa 0,0 l/m 2,4 km/h (1 Bft) 2 min 0,0 km/h (0 Bft)
09.03.2010 17:38 16,5 C 5,5 C 0,0 UV-I 1,7 C 28 % 36 % 49 % 1026,4 hPa 0,0 l/m 2,4 km/h (1 Bft) 2 min 2,4 km/h (1 Bft)
09.03.2010 17:40 16,4 C 5,4 C 0,0 UV-I 1,4 C 28 % 36 % 40 % 1026,4 hPa 0,0 l/m 2,8 km/h (1 Bft) 2 min 2,4 km/h (1 Bft)
09.03.2010 17:42 16,4 C 5,3 C 0,0 UV-I 1,2 C 28 % 37 % 34 % 1026,4 hPa 0,0 l/m 2,0 km/h (1 Bft) 2 min 0,0 km/h (0 Bft)
09.03.2010 17:44 16,4 C 5,2 C 0,0 UV-I 1,2 C 28 % 38 % 34 % 1026,4 hPa 0,0 l/m 1,6 km/h (1 Bft) 2 min 3,6 km/h (1 Bft)
09.03.2010 17:46 16,4 C 5,2 C 0,0 UV-I 1,1 C 28 % 38 % 31 % 1026,4 hPa 0,0 l/m 2,0 km/h (1 Bft) 2 min 4,1 km/h (1 Bft)
09.03.2010 17:50 16,2 C 5,0 C 0,0 UV-I 1,0 C 28 % 39 % 29 % 1026,4 hPa 0,0 l/m 2,0 km/h (1 Bft) 2 min 3,1 km/h (1 Bft)
09.03.2010 17:52 16,2 C 5,1 C 0,0 UV-I 0,8 C 28 % 40 % 23 % 1026,3 hPa 0,0 l/m 2,0 km/h (1 Bft) 2 min 4,8 km/h (1 Bft)
09.03.2010 17:54 16,2 C 4,9 C 0,0 UV-I 0,8 C 28 % 40 % 23 % 1026,3 hPa 0,0 l/m 2,0 km/h (1 Bft) 2 min 3,1 km/h (1 Bft)
09.03.2010 17:56 16,1 C 4,8 C 0,0 UV-I 0,7 C 28 % 40 % 20 % 1026,3 hPa 0,0 l/m 2,0 km/h (1 Bft) 2 min 0,0 km/h (0 Bft)
09.03.2010 17:58 16,1 C 4,8 C 0,0 UV-I 0,2 C 28 % 40 % 6 % 1026,3 hPa 0,0 l/m 1,6 km/h (1 Bft) 0 min 0,0 km/h (0 Bft)
09.03.2010 18:00 15,9 C 4,7 C 0,0 UV-I 0,0 C 28 % 40 % 0 % 1026,3 hPa 0,0 l/m 1,6 km/h (1 Bft) 0 min 0,0 km/h (0 Bft)
09.03.2010 18:02 16,0 C 4,6 C 0,0 UV-I 0,0 C 28 % 41 % 0 % 1026,3 hPa 0,0 l/m 1,6 km/h (1 Bft) 0 min 2,9 km/h (1 Bft)
09.03.2010 18:04 15,8 C 4,5 C 0,0 UV-I 0,0 C 28 % 41 % 0 % 1026,3 hPa 0,0 l/m 1,6 km/h (1 Bft) 0 min 0,0 km/h (0 Bft)
09.03.2010 18:06 15,9 C 4,5 C 0,0 UV-I 0,0 C 28 % 41 % 0 % 1026,3 hPa 0,0 l/m 1,6 km/h (1 Bft) 0 min 2,9 km/h (1 Bft)
09.03.2010 18:08 15,8 C 4,4 C 0,0 UV-I 0,0 C 28 % 42 % 0 % 1026,3 hPa 0,0 l/m 1,2 km/h (1 Bft) 0 min 0,0 km/h (0 Bft)
09.03.2010 18:12 15,6 C 4,3 C 0,0 UV-I 0,0 C 28 % 42 % 0 % 1026,3 hPa 0,0 l/m 1,2 km/h (1 Bft) 0 min 0,0 km/h (0 Bft)
09.03.2010 18:14 15,6 C 4,1 C 0,0 UV-I 0,0 C 29 % 43 % 0 % 1026,3 hPa 0,0 l/m 0,8 km/h (0 Bft) 0 min 0,0 km/h (0 Bft)
09.03.2010 18:16 15,6 C 4,1 C 0,0 UV-I 0,0 C 29 % 43 % 0 % 1026,3 hPa 0,0 l/m 0,8 km/h (0 Bft) 0 min 0,0 km/h (0 Bft)
09.03.2010 18:18 15,6 C 4,0 C 0,0 UV-I 0,0 C 29 % 43 % 0 % 1026,3 hPa 0,0 l/m 0,8 km/h (0 Bft) 0 min 0,0 km/h (0 Bft)
09.03.2010 18:20 15,5 C 3,9 C 0,0 UV-I 0,0 C 29 % 43 % 0 % 1026,3 hPa 0,0 l/m 0,8 km/h (0 Bft) 0 min 0,0 km/h (0 Bft)
09.03.2010 18:22 15,3 C 3,9 C 0,0 UV-I 0,0 C 29 % 44 % 0 % 1026,3 hPa 0,0 l/m 0,8 km/h (0 Bft) 0 min 0,0 km/h (0 Bft)
09.03.2010 18:24 15,4 C 3,7 C 0,0 UV-I 0,0 C 29 % 44 % 0 % 1026,3 hPa 0,0 l/m 1,2 km/h (1 Bft) 0 min 4,1 km/h (1 Bft)
09.03.2010 18:26 15,2 C 3,6 C 0,0 UV-I 0,0 C 29 % 44 % 0 % 1026,3 hPa 0,0 l/m 1,6 km/h (1 Bft) 0 min 3,1 km/h (1 Bft)
09.03.2010 18:28 15,2 C 3,6 C 0,0 UV-I 0,0 C 29 % 44 % 0 % 1026,3 hPa 0,0 l/m 1,6 km/h (1 Bft) 0 min 0,0 km/h (0 Bft)
09.03.2010 18:30 15,1 C 3,5 C 0,0 UV-I 0,0 C 29 % 44 % 0 % 1026,3 hPa 0,0 l/m 2,0 km/h (1 Bft) 0 min 3,6 km/h (1 Bft)
09.03.2010 18:32 15,2 C 3,5 C 0,0 UV-I 0,0 C 29 % 45 % 0 % 1026,3 hPa 0,0 l/m 1,6 km/h (1 Bft) 0 min 2,4 km/h (1 Bft)
09.03.2010 18:34 15,1 C 3,5 C 0,0 UV-I 0,0 C 29 % 45 % 0 % 1026,3 hPa 0,0 l/m 1,6 km/h (1 Bft) 0 min 0,0 km/h (0 Bft)
09.03.2010 18:36 15,1 C 3,3 C 0,0 UV-I 0,0 C 29 % 45 % 0 % 1026,3 hPa 0,0 l/m 1,2 km/h (1 Bft) 0 min 0,0 km/h (0 Bft)
09.03.2010 18:38 15,0 C 3,3 C 0,0 UV-I 0,0 C 29 % 45 % 0 % 1026,3 hPa 0,0 l/m 0,8 km/h (0 Bft) 0 min 3,1 km/h (1 Bft)
09.03.2010 18:40 15,0 C 3,1 C 0,0 UV-I 0,0 C 29 % 45 % 0 % 1026,3 hPa 0,0 l/m 0,8 km/h (0 Bft) 0 min 0,0 km/h (0 Bft)
09.03.2010 18:42 15,0 C 3,1 C 0,0 UV-I 0,0 C 29 % 46 % 0 % 1026,3 hPa 0,0 l/m 0,4 km/h (0 Bft) 0 min 2,6 km/h (1 Bft)
09.03.2010 18:44 14,9 C 3,1 C 0,0 UV-I 0,0 C 29 % 46 % 0 % 1026,3 hPa 0,0 l/m 0,8 km/h (0 Bft) 0 min 3,1 km/h (1 Bft)
09.03.2010 18:48 14,8 C 2,9 C 0,0 UV-I 0,0 C 30 % 46 % 0 % 1026,3 hPa 0,0 l/m 0,8 km/h (0 Bft) 0 min 2,4 km/h (1 Bft)
09.03.2010 18:50 14,6 C 2,8 C 0,0 UV-I 0,0 C 30 % 47 % 0 % 1026,3 hPa 0,0 l/m 0,8 km/h (0 Bft) 0 min 0,0 km/h (0 Bft)
09.03.2010 18:52 14,7 C 2,8 C 0,0 UV-I 0,0 C 30 % 47 % 0 % 1026,3 hPa 0,0 l/m 0,8 km/h (0 Bft) 0 min 0,0 km/h (0 Bft)
09.03.2010 18:54 14,6 C 2,8 C 0,0 UV-I 0,0 C 30 % 47 % 0 % 1026,3 hPa 0,0 l/m 0,8 km/h (0 Bft) 0 min 0,0 km/h (0 Bft)
09.03.2010 18:56 14,6 C 2,7 C 0,0 UV-I 0,0 C 30 % 48 % 0 % 1026,3 hPa 0,0 l/m 0,4 km/h (0 Bft) 0 min 0,0 km/h (0 Bft)
09.03.2010 18:58 14,6 C 2,6 C 0,0 UV-I 0,0 C 30 % 48 % 0 % 1026,3 hPa 0,0 l/m 0,8 km/h (0 Bft) 0 min 0,0 km/h (0 Bft)
09.03.2010 19:00 14,5 C 2,7 C 0,0 UV-I 0,0 C 30 % 48 % 0 % 1026,3 hPa 0,0 l/m 0,4 km/h (0 Bft) 0 min 0,0 km/h (0 Bft)
09.03.2010 19:02 14,3 C 2,5 C 0,0 UV-I 0,0 C 30 % 49 % 0 % 1026,3 hPa 0,0 l/m 0,4 km/h (0 Bft) 0 min 0,0 km/h (0 Bft)
09.03.2010 19:04 14,4 C 2,5 C 0,0 UV-I 0,0 C 30 % 49 % 0 % 1026,3 hPa 0,0 l/m 0,4 km/h (0 Bft) 0 min 0,0 km/h (0 Bft)
09.03.2010 19:06 14,3 C 2,4 C 0,0 UV-I 0,0 C 30 % 49 % 0 % 1026,3 hPa 0,0 l/m 0,8 km/h (0 Bft) 0 min 0,0 km/h (0 Bft)
09.03.2010 19:08 14,3 C 2,4 C 0,0 UV-I 0,0 C 30 % 49 % 0 % 1026,3 hPa 0,0 l/m 0,4 km/h (0 Bft) 0 min 2,6 km/h (1 Bft)
09.03.2010 19:10 14,2 C 2,3 C 0,0 UV-I 0,0 C 30 % 50 % 0 % 1026,3 hPa 0,0 l/m 0,4 km/h (0 Bft) 0 min 0,0 km/h (0 Bft)
09.03.2010 19:12 14,1 C 2,3 C 0,0 UV-I 0,0 C 30 % 50 % 0 % 1026,6 hPa 0,0 l/m 0,4 km/h (0 Bft) 0 min 0,0 km/h (0 Bft)
09.03.2010 19:14 14,1 C 2,2 C 0,0 UV-I 0,0 C 30 % 50 % 0 % 1026,6 hPa 0,0 l/m 0,4 km/h (0 Bft) 0 min 0,0 km/h (0 Bft)
09.03.2010 19:16 13,9 C 2,3 C 0,0 UV-I 0,0 C 30 % 51 % 0 % 1026,6 hPa 0,0 l/m 0,4 km/h (0 Bft) 0 min 0,0 km/h (0 Bft)
09.03.2010 19:18 14,0 C 2,2 C 0,0 UV-I 0,0 C 30 % 50 % 0 % 1026,6 hPa 0,0 l/m 0,4 km/h (0 Bft) 0 min 0,0 km/h (0 Bft)
09.03.2010 19:20 14,0 C 2,1 C 0,0 UV-I 0,0 C 30 % 50 % 0 % 1026,6 hPa 0,0 l/m 0,4 km/h (0 Bft) 0 min 0,0 km/h (0 Bft)
09.03.2010 19:22 13,9 C 2,1 C 0,0 UV-I 0,0 C 30 % 51 % 0 % 1026,6 hPa 0,0 l/m 0,8 km/h (0 Bft) 0 min 0,0 km/h (0 Bft)
09.03.2010 19:24 13,9 C 2,0 C 0,0 UV-I 0,0 C 30 % 51 % 0 % 1026,6 hPa 0,0 l/m 0,4 km/h (0 Bft) 0 min 0,0 km/h (0 Bft)
09.03.2010 19:28 13,8 C 2,0 C 0,0 UV-I 0,0 C 30 % 52 % 0 % 1026,6 hPa 0,0 l/m 0,4 km/h (0 Bft) 0 min 0,0 km/h (0 Bft)
09.03.2010 19:30 13,6 C 1,9 C 0,0 UV-I 0,0 C 30 % 52 % 0 % 1026,6 hPa 0,0 l/m 0,4 km/h (0 Bft) 0 min 0,0 km/h (0 Bft)
09.03.2010 19:32 13,6 C 1,8 C 0,0 UV-I 0,0 C 30 % 52 % 0 % 1026,4 hPa 0,0 l/m 0,0 km/h (0 Bft) 0 min 0,0 km/h (0 Bft)
09.03.2010 19:34 13,6 C 1,9 C 0,0 UV-I 0,0 C 30 % 53 % 0 % 1026,4 hPa 0,0 l/m 0,0 km/h (0 Bft) 0 min 0,0 km/h (0 Bft)
09.03.2010 19:36 13,6 C 1,9 C 0,0 UV-I 0,0 C 30 % 53 % 0 % 1026,4 hPa 0,0 l/m 0,0 km/h (0 Bft) 0 min 0,0 km/h (0 Bft)
09.03.2010 19:38 13,6 C 1,7 C 0,0 UV-I 0,0 C 31 % 53 % 0 % 1026,4 hPa 0,0 l/m 0,0 km/h (0 Bft) 0 min 0,0 km/h (0 Bft)
09.03.2010 19:40 13,6 C 1,7 C 0,0 UV-I 0,0 C 31 % 53 % 0 % 1026,4 hPa 0,0 l/m 0,0 km/h (0 Bft) 0 min 0,0 km/h (0 Bft)
09.03.2010 19:44 13,4 C 1,6 C 0,0 UV-I 0,0 C 31 % 54 % 0 % 1026,4 hPa 0,0 l/m 0,0 km/h (0 Bft) 0 min 0,0 km/h (0 Bft)
09.03.2010 19:46 13,5 C 1,6 C 0,0 UV-I 0,0 C 31 % 54 % 0 % 1026,4 hPa 0,0 l/m 0,0 km/h (0 Bft) 0 min 0,0 km/h (0 Bft)
09.03.2010 19:48 13,3 C 1,5 C 0,0 UV-I 0,0 C 31 % 54 % 0 % 1026,4 hPa 0,0 l/m 0,0 km/h (0 Bft) 0 min 0,0 km/h (0 Bft)
09.03.2010 19:50 13,3 C 1,5 C 0,0 UV-I 0,0 C 31 % 54 % 0 % 1026,4 hPa 0,0 l/m 0,4 km/h (0 Bft) 0 min 3,4 km/h (1 Bft)
09.03.2010 19:52 13,4 C 1,4 C 0,0 UV-I 0,0 C 31 % 54 % 0 % 1027,2 hPa 0,0 l/m 0,4 km/h (0 Bft) 0 min 0,0 km/h (0 Bft)
09.03.2010 19:54 13,4 C 1,4 C 0,0 UV-I 0,0 C 31 % 54 % 0 % 1027,2 hPa 0,0 l/m 0,8 km/h (0 Bft) 0 min 3,4 km/h (1 Bft)
09.03.2010 19:56 13,4 C 1,5 C 0,0 UV-I 0,0 C 31 % 55 % 0 % 1027,2 hPa 0,0 l/m 0,8 km/h (0 Bft) 0 min 0,0 km/h (0 Bft)
09.03.2010 19:58 13,2 C 1,4 C 0,0 UV-I 0,0 C 31 % 55 % 0 % 1027,2 hPa 0,0 l/m 0,8 km/h (0 Bft) 0 min 0,0 km/h (0 Bft)
09.03.2010 20:00 13,2 C 1,3 C 0,0 UV-I 0,0 C 31 % 55 % 0 % 1027,2 hPa 0,0 l/m 0,8 km/h (0 Bft) 0 min 0,0 km/h (0 Bft)
09.03.2010 20:04 13,1 C 1,3 C 0,0 UV-I 0,0 C 31 % 55 % 0 % 1027,2 hPa 0,0 l/m 0,4 km/h (0 Bft) 0 min 0,0 km/h (0 Bft)
09.03.2010 20:06 13,1 C 1,2 C 0,0 UV-I 0,0 C 31 % 55 % 0 % 1027,2 hPa 0,0 l/m 0,0 km/h (0 Bft) 0 min 0,0 km/h (0 Bft)
09.03.2010 20:08 13,2 C 1,3 C 0,0 UV-I 0,0 C 31 % 55 % 0 % 1027,2 hPa 0,0 l/m 0,4 km/h (0 Bft) 0 min 3,6 km/h (1 Bft)
09.03.2010 20:10 13,1 C 1,2 C 0,0 UV-I 0,0 C 31 % 55 % 0 % 1027,2 hPa 0,0 l/m 0,4 km/h (0 Bft) 0 min 0,0 km/h (0 Bft)
09.03.2010 20:12 13,2 C 1,2 C 0,0 UV-I 0,0 C 31 % 55 % 0 % 1027,2 hPa 0,0 l/m 0,4 km/h (0 Bft) 0 min 2,6 km/h (1 Bft)
09.03.2010 20:14 13,2 C 1,2 C 0,0 UV-I 0,0 C 31 % 55 % 0 % 1027,2 hPa 0,0 l/m 0,4 km/h (0 Bft) 0 min 0,0 km/h (0 Bft)
09.03.2010 20:16 13,2 C 1,1 C 0,0 UV-I 0,0 C 31 % 56 % 0 % 1027,2 hPa 0,0 l/m 0,4 km/h (0 Bft) 0 min 0,0 km/h (0 Bft)
09.03.2010 20:18 13,2 C 1,1 C 0,0 UV-I 0,0 C 31 % 56 % 0 % 1027,2 hPa 0,0 l/m 0,4 km/h (0 Bft) 0 min 0,0 km/h (0 Bft)
09.03.2010 20:20 13,1 C 1,1 C 0,0 UV-I 0,0 C 31 % 56 % 0 % 1027,2 hPa 0,0 l/m 0,4 km/h (0 Bft) 0 min 0,0 km/h (0 Bft)
09.03.2010 20:22 13,1 C 1,1 C 0,0 UV-I 0,0 C 31 % 56 % 0 % 1027,2 hPa 0,0 l/m 0,4 km/h (0 Bft) 0 min 0,0 km/h (0 Bft)
09.03.2010 20:26 13,1 C 1,0 C 0,0 UV-I 0,0 C 31 % 57 % 0 % 1027,2 hPa 0,0 l/m 0,4 km/h (0 Bft) 0 min 0,0 km/h (0 Bft)
09.03.2010 20:28 13,1 C 0,9 C 0,0 UV-I 0,0 C 31 % 57 % 0 % 1027,2 hPa 0,0 l/m 0,4 km/h (0 Bft) 0 min 0,0 km/h (0 Bft)
09.03.2010 20:30 13,1 C 0,9 C 0,0 UV-I 0,0 C 31 % 57 % 0 % 1027,2 hPa 0,0 l/m 0,0 km/h (0 Bft) 0 min 0,0 km/h (0 Bft)
09.03.2010 20:32 12,9 C 0,9 C 0,0 UV-I 0,0 C 31 % 57 % 0 % 1027,2 hPa 0,0 l/m 0,4 km/h (0 Bft) 0 min 3,4 km/h (1 Bft)
09.03.2010 20:36 13,0 C 0,8 C 0,0 UV-I 0,0 C 31 % 57 % 0 % 1027,2 hPa 0,0 l/m 0,4 km/h (0 Bft) 0 min 0,0 km/h (0 Bft)
09.03.2010 20:38 13,0 C 0,9 C 0,0 UV-I 0,0 C 31 % 58 % 0 % 1027,2 hPa 0,0 l/m 0,4 km/h (0 Bft) 0 min 0,0 km/h (0 Bft)
09.03.2010 20:44 12,8 C 0,7 C 0,0 UV-I 0,0 C 31 % 58 % 0 % 1027,2 hPa 0,0 l/m 0,0 km/h (0 Bft) 0 min 0,0 km/h (0 Bft)
09.03.2010 20:46 12,8 C 0,7 C 0,0 UV-I 0,0 C 31 % 58 % 0 % 1027,2 hPa 0,0 l/m 0,0 km/h (0 Bft) 0 min 0,0 km/h (0 Bft)
09.03.2010 20:48 12,8 C 0,7 C 0,0 UV-I 0,0 C 31 % 58 % 0 % 1027,2 hPa 0,0 l/m 0,0 km/h (0 Bft) 0 min 0,0 km/h (0 Bft)
09.03.2010 20:52 12,9 C 0,6 C 0,0 UV-I 0,0 C 31 % 59 % 0 % 1027,4 hPa 0,0 l/m 0,0 km/h (0 Bft) 0 min 0,0 km/h (0 Bft)
09.03.2010 20:54 12,8 C 0,7 C 0,0 UV-I 0,0 C 32 % 59 % 0 % 1027,4 hPa 0,0 l/m 0,0 km/h (0 Bft) 0 min 0,0 km/h (0 Bft)
09.03.2010 20:56 12,8 C 0,7 C 0,0 UV-I 0,0 C 32 % 59 % 0 % 1027,4 hPa 0,0 l/m 0,0 km/h (0 Bft) 0 min 0,0 km/h (0 Bft)
09.03.2010 20:58 12,8 C 0,7 C 0,0 UV-I 0,0 C 32 % 59 % 0 % 1027,4 hPa 0,0 l/m 0,0 km/h (0 Bft) 0 min 0,0 km/h (0 Bft)
09.03.2010 21:00 12,8 C 0,6 C 0,0 UV-I 0,0 C 32 % 59 % 0 % 1027,4 hPa 0,0 l/m 0,4 km/h (0 Bft) 0 min 0,0 km/h (0 Bft)
09.03.2010 21:02 12,8 C 0,6 C 0,0 UV-I 0,0 C 32 % 59 % 0 % 1027,4 hPa 0,0 l/m 0,4 km/h (0 Bft) 0 min 0,0 km/h (0 Bft)
09.03.2010 21:06 12,8 C 0,5 C 0,0 UV-I 0,0 C 32 % 59 % 0 % 1027,4 hPa 0,0 l/m 0,4 km/h (0 Bft) 0 min 0,0 km/h (0 Bft)
09.03.2010 21:08 12,8 C 0,5 C 0,0 UV-I 0,0 C 32 % 59 % 0 % 1027,4 hPa 0,0 l/m 0,4 km/h (0 Bft) 0 min 0,0 km/h (0 Bft)
09.03.2010 21:10 12,8 C 0,4 C 0,0 UV-I 0,0 C 32 % 60 % 0 % 1027,4 hPa 0,0 l/m 0,4 km/h (0 Bft) 0 min 0,0 km/h (0 Bft)
09.03.2010 21:12 12,6 C 0,4 C 0,0 UV-I 0,0 C 32 % 60 % 0 % 1027,2 hPa 0,0 l/m 0,4 km/h (0 Bft) 0 min 0,0 km/h (0 Bft)
09.03.2010 21:14 12,6 C 0,4 C 0,0 UV-I 0,0 C 32 % 60 % 0 % 1027,2 hPa 0,0 l/m 0,4 km/h (0 Bft) 0 min 2,6 km/h (1 Bft)
09.03.2010 21:16 12,7 C 0,4 C 0,0 UV-I 0,0 C 32 % 60 % 0 % 1027,2 hPa 0,0 l/m 0,4 km/h (0 Bft) 0 min 0,0 km/h (0 Bft)
09.03.2010 21:18 12,7 C 0,4 C 0,0 UV-I 0,0 C 32 % 60 % 0 % 1027,2 hPa 0,0 l/m 0,4 km/h (0 Bft) 0 min 0,0 km/h (0 Bft)
09.03.2010 21:22 12,6 C 0,4 C 0,0 UV-I 0,0 C 32 % 61 % 0 % 1027,2 hPa 0,0 l/m 0,4 km/h (0 Bft) 0 min 0,0 km/h (0 Bft)
09.03.2010 21:26 12,6 C 0,4 C 0,0 UV-I 0,0 C 32 % 61 % 0 % 1027,2 hPa 0,0 l/m 0,0 km/h (0 Bft) 0 min 0,0 km/h (0 Bft)
09.03.2010 21:28 12,6 C 0,4 C 0,0 UV-I 0,0 C 32 % 61 % 0 % 1027,2 hPa 0,0 l/m 0,4 km/h (0 Bft) 0 min 0,0 km/h (0 Bft)
09.03.2010 21:30 12,6 C 0,3 C 0,0 UV-I 0,0 C 32 % 61 % 0 % 1027,2 hPa 0,0 l/m 0,4 km/h (0 Bft) 0 min 2,4 km/h (1 Bft)
09.03.2010 21:32 12,6 C 0,3 C 0,0 UV-I 0,0 C 32 % 61 % 0 % 1026,8 hPa 0,0 l/m 0,4 km/h (0 Bft) 0 min 0,0 km/h (0 Bft)
09.03.2010 21:34 12,6 C 0,3 C 0,0 UV-I 0,0 C 32 % 61 % 0 % 1026,8 hPa 0,0 l/m 0,4 km/h (0 Bft) 0 min 0,0 km/h (0 Bft)
09.03.2010 21:36 12,4 C 0,3 C 0,0 UV-I 0,0 C 32 % 61 % 0 % 1026,8 hPa 0,0 l/m 0,8 km/h (0 Bft) 0 min 0,0 km/h (0 Bft)
09.03.2010 21:40 12,4 C 0,3 C 0,0 UV-I 0,0 C 32 % 62 % 0 % 1026,8 hPa 0,0 l/m 1,6 km/h (1 Bft) 0 min 3,1 km/h (1 Bft)
09.03.2010 21:42 12,4 C 0,3 C 0,0 UV-I 0,0 C 32 % 62 % 0 % 1026,8 hPa 0,0 l/m 2,0 km/h (1 Bft) 0 min 2,6 km/h (1 Bft)
09.03.2010 21:44 12,4 C 0,3 C 0,0 UV-I 0,0 C 32 % 62 % 0 % 1026,8 hPa 0,0 l/m 2,8 km/h (1 Bft) 0 min 2,4 km/h (1 Bft)
09.03.2010 21:46 12,5 C 0,3 C 0,0 UV-I 0,0 C 32 % 62 % 0 % 1026,8 hPa 0,0 l/m 2,8 km/h (1 Bft) 0 min 2,4 km/h (1 Bft)
09.03.2010 21:48 12,5 C 0,3 C 0,0 UV-I 0,0 C 33 % 62 % 0 % 1026,8 hPa 0,0 l/m 2,4 km/h (1 Bft) 0 min 4,8 km/h (1 Bft)
09.03.2010 21:52 12,3 C 0,3 C 0,0 UV-I 0,0 C 33 % 62 % 0 % 1026,7 hPa 0,0 l/m 2,8 km/h (1 Bft) 0 min 4,3 km/h (1 Bft)
09.03.2010 21:54 12,3 C 0,3 C 0,0 UV-I 0,0 C 33 % 62 % 0 % 1026,7 hPa 0,0 l/m 2,4 km/h (1 Bft) 0 min 0,0 km/h (0 Bft)
09.03.2010 21:56 12,3 C 0,3 C 0,0 UV-I 0,0 C 33 % 62 % 0 % 1026,7 hPa 0,0 l/m 2,0 km/h (1 Bft) 0 min 0,0 km/h (0 Bft)
09.03.2010 21:58 12,3 C 0,3 C 0,0 UV-I 0,0 C 33 % 62 % 0 % 1026,7 hPa 0,0 l/m 2,0 km/h (1 Bft) 0 min 2,9 km/h (1 Bft)
09.03.2010 22:00 12,3 C 0,3 C 0,0 UV-I 0,0 C 33 % 62 % 0 % 1026,7 hPa 0,0 l/m 1,6 km/h (1 Bft) 0 min 0,0 km/h (0 Bft)
09.03.2010 22:02 12,4 C 0,3 C 0,0 UV-I 0,0 C 33 % 62 % 0 % 1026,7 hPa 0,0 l/m 1,2 km/h (1 Bft) 0 min 0,0 km/h (0 Bft)
09.03.2010 22:06 12,4 C 0,3 C 0,0 UV-I 0,0 C 33 % 61 % 0 % 1026,7 hPa 0,0 l/m 1,2 km/h (1 Bft) 0 min 0,0 km/h (0 Bft)
09.03.2010 22:08 12,4 C 0,3 C 0,0 UV-I 0,0 C 33 % 61 % 0 % 1026,7 hPa 0,0 l/m 1,6 km/h (1 Bft) 0 min 5,3 km/h (1 Bft)
09.03.2010 22:10 12,4 C 0,3 C 0,0 UV-I 0,0 C 33 % 61 % 0 % 1026,7 hPa 0,0 l/m 1,6 km/h (1 Bft) 0 min 0,0 km/h (0 Bft)
09.03.2010 22:12 12,4 C 0,3 C 0,0 UV-I 0,0 C 33 % 61 % 0 % 1026,5 hPa 0,0 l/m 2,0 km/h (1 Bft) 0 min 3,8 km/h (1 Bft)
09.03.2010 22:14 12,4 C 0,3 C 0,0 UV-I 0,0 C 33 % 61 % 0 % 1026,5 hPa 0,0 l/m 2,4 km/h (1 Bft) 0 min 3,8 km/h (1 Bft)
09.03.2010 22:16 12,4 C 0,3 C 0,0 UV-I 0,0 C 33 % 61 % 0 % 1026,5 hPa 0,0 l/m 2,0 km/h (1 Bft) 0 min 0,0 km/h (0 Bft)
09.03.2010 22:18 12,4 C 0,3 C 0,0 UV-I 0,0 C 33 % 61 % 0 % 1026,5 hPa 0,0 l/m 2,0 km/h (1 Bft) 0 min 0,0 km/h (0 Bft)
09.03.2010 22:20 12,2 C 0,3 C 0,0 UV-I 0,0 C 33 % 60 % 0 % 1026,5 hPa 0,0 l/m 1,6 km/h (1 Bft) 0 min 0,0 km/h (0 Bft)
09.03.2010 22:22 12,2 C 0,3 C 0,0 UV-I 0,0 C 33 % 60 % 0 % 1026,5 hPa 0,0 l/m 1,6 km/h (1 Bft) 0 min 0,0 km/h (0 Bft)
09.03.2010 22:26 12,3 C 0,2 C 0,0 UV-I 0,0 C 33 % 60 % 0 % 1026,5 hPa 0,0 l/m 0,8 km/h (0 Bft) 0 min 0,0 km/h (0 Bft)
09.03.2010 22:28 12,2 C 0,2 C 0,0 UV-I 0,0 C 33 % 61 % 0 % 1026,5 hPa 0,0 l/m 0,8 km/h (0 Bft) 0 min 0,0 km/h (0 Bft)
09.03.2010 22:30 12,2 C 0,2 C 0,0 UV-I 0,0 C 33 % 60 % 0 % 1026,5 hPa 0,0 l/m 0,8 km/h (0 Bft) 0 min 0,0 km/h (0 Bft)
09.03.2010 22:32 12,3 C 0,2 C 0,0 UV-I 0,0 C 33 % 60 % 0 % 1026,9 hPa 0,0 l/m 0,8 km/h (0 Bft) 0 min 3,6 km/h (1 Bft)
09.03.2010 22:34 12,3 C 0,3 C 0,0 UV-I 0,0 C 33 % 60 % 0 % 1026,9 hPa 0,0 l/m 0,4 km/h (0 Bft) 0 min 0,0 km/h (0 Bft)
09.03.2010 22:36 12,3 C 0,3 C 0,0 UV-I 0,0 C 33 % 60 % 0 % 1026,9 hPa 0,0 l/m 0,4 km/h (0 Bft) 0 min 0,0 km/h (0 Bft)
09.03.2010 22:38 12,3 C 0,3 C 0,0 UV-I 0,0 C 33 % 60 % 0 % 1026,9 hPa 0,0 l/m 0,4 km/h (0 Bft) 0 min 0,0 km/h (0 Bft)
09.03.2010 22:40 12,1 C 0,3 C 0,0 UV-I 0,0 C 33 % 60 % 0 % 1026,9 hPa 0,0 l/m 0,4 km/h (0 Bft) 0 min 0,0 km/h (0 Bft)
09.03.2010 22:42 12,1 C 0,2 C 0,0 UV-I 0,0 C 33 % 60 % 0 % 1026,9 hPa 0,0 l/m 0,4 km/h (0 Bft) 0 min 0,0 km/h (0 Bft)
09.03.2010 22:46 12,1 C 0,1 C 0,0 UV-I 0,0 C 33 % 60 % 0 % 1026,9 hPa 0,0 l/m 0,4 km/h (0 Bft) 0 min 0,0 km/h (0 Bft)
09.03.2010 22:48 12,1 C 0,2 C 0,0 UV-I 0,0 C 33 % 61 % 0 % 1026,9 hPa 0,0 l/m 0,4 km/h (0 Bft) 0 min 2,6 km/h (1 Bft)
09.03.2010 22:50 12,1 C 0,1 C 0,0 UV-I 0,0 C 33 % 61 % 0 % 1026,9 hPa 0,0 l/m 0,8 km/h (0 Bft) 0 min 0,0 km/h (0 Bft)
09.03.2010 22:52 12,2 C 0,1 C 0,0 UV-I 0,0 C 33 % 61 % 0 % 1026,9 hPa 0,0 l/m 0,8 km/h (0 Bft) 0 min 0,0 km/h (0 Bft)
09.03.2010 22:54 12,2 C 0,1 C 0,0 UV-I 0,0 C 32 % 61 % 0 % 1026,9 hPa 0,0 l/m 0,8 km/h (0 Bft) 0 min 0,0 km/h (0 Bft)
09.03.2010 22:56 12,2 C 0,1 C 0,0 UV-I 0,0 C 33 % 61 % 0 % 1026,9 hPa 0,0 l/m 0,8 km/h (0 Bft) 0 min 0,0 km/h (0 Bft)
09.03.2010 22:58 12,2 C 0,1 C 0,0 UV-I 0,0 C 33 % 61 % 0 % 1026,9 hPa 0,0 l/m 0,8 km/h (0 Bft) 0 min 0,0 km/h (0 Bft)
09.03.2010 23:00 12,2 C 0,1 C 0,0 UV-I 0,0 C 33 % 61 % 0 % 1026,9 hPa 0,0 l/m 0,4 km/h (0 Bft) 0 min 0,0 km/h (0 Bft)
09.03.2010 23:02 12,2 C 0,0 C 0,0 UV-I 0,0 C 33 % 61 % 0 % 1026,9 hPa 0,0 l/m 0,4 km/h (0 Bft) 0 min 0,0 km/h (0 Bft)
09.03.2010 23:04 12,2 C 0,0 C 0,0 UV-I 0,0 C 33 % 61 % 0 % 1026,9 hPa 0,0 l/m 0,4 km/h (0 Bft) 0 min 0,0 km/h (0 Bft)
09.03.2010 23:06 12,2 C 0,0 C 0,0 UV-I 0,0 C 33 % 61 % 0 % 1026,9 hPa 0,0 l/m 0,8 km/h (0 Bft) 0 min 0,0 km/h (0 Bft)
09.03.2010 23:08 12,2 C 0,1 C 0,0 UV-I 0,0 C 33 % 61 % 0 % 1026,9 hPa 0,0 l/m 0,4 km/h (0 Bft) 0 min 0,0 km/h (0 Bft)
09.03.2010 23:10 12,1 C -0,1 C 0,0 UV-I 0,0 C 33 % 62 % 0 % 1026,9 hPa 0,0 l/m 0,0 km/h (0 Bft) 0 min 0,0 km/h (0 Bft)
09.03.2010 23:12 12,1 C -0,1 C 0,0 UV-I 0,0 C 33 % 62 % 0 % 1026,6 hPa 0,0 l/m 0,0 km/h (0 Bft) 0 min 0,0 km/h (0 Bft)
09.03.2010 23:14 12,1 C -0,1 C 0,0 UV-I 0,0 C 33 % 62 % 0 % 1026,6 hPa 0,0 l/m 0,4 km/h (0 Bft) 0 min 0,0 km/h (0 Bft)
09.03.2010 23:16 12,1 C -0,1 C 0,0 UV-I 0,0 C 33 % 62 % 0 % 1026,6 hPa 0,0 l/m 0,0 km/h (0 Bft) 0 min 0,0 km/h (0 Bft)
09.03.2010 23:20 12,1 C -0,1 C 0,0 UV-I 0,0 C 33 % 62 % 0 % 1026,6 hPa 0,0 l/m 0,0 km/h (0 Bft) 0 min 0,0 km/h (0 Bft)
09.03.2010 23:22 12,1 C -0,1 C 0,0 UV-I 0,0 C 33 % 62 % 0 % 1026,6 hPa 0,0 l/m 0,0 km/h (0 Bft) 0 min 0,0 km/h (0 Bft)
09.03.2010 23:24 12,1 C -0,1 C 0,0 UV-I 0,0 C 33 % 62 % 0 % 1026,6 hPa 0,0 l/m 0,0 km/h (0 Bft) 0 min 0,0 km/h (0 Bft)
09.03.2010 23:26 12,1 C -0,2 C 0,0 UV-I 0,0 C 33 % 62 % 0 % 1026,6 hPa 0,0 l/m 0,0 km/h (0 Bft) 0 min 0,0 km/h (0 Bft)
09.03.2010 23:28 12,1 C -0,1 C 0,0 UV-I 0,0 C 33 % 62 % 0 % 1026,6 hPa 0,0 l/m 0,0 km/h (0 Bft) 0 min 0,0 km/h (0 Bft)
09.03.2010 23:30 11,9 C -0,1 C 0,0 UV-I 0,0 C 33 % 62 % 0 % 1026,6 hPa 0,0 l/m 0,0 km/h (0 Bft) 0 min 0,0 km/h (0 Bft)
09.03.2010 23:32 11,9 C -0,1 C 0,0 UV-I 0,0 C 33 % 62 % 0 % 1026,4 hPa 0,0 l/m 0,0 km/h (0 Bft) 0 min 0,0 km/h (0 Bft)
09.03.2010 23:34 11,9 C -0,1 C 0,0 UV-I 0,0 C 33 % 62 % 0 % 1026,4 hPa 0,0 l/m 0,0 km/h (0 Bft) 0 min 0,0 km/h (0 Bft)
09.03.2010 23:36 11,9 C -0,1 C 0,0 UV-I 0,0 C 33 % 62 % 0 % 1026,4 hPa 0,0 l/m 0,0 km/h (0 Bft) 0 min 0,0 km/h (0 Bft)
09.03.2010 23:38 11,9 C -0,3 C 0,0 UV-I 0,0 C 33 % 62 % 0 % 1026,4 hPa 0,0 l/m 0,0 km/h (0 Bft) 0 min 0,0 km/h (0 Bft)
09.03.2010 23:40 11,9 C -0,3 C 0,0 UV-I 0,0 C 33 % 62 % 0 % 1026,4 hPa 0,0 l/m 0,0 km/h (0 Bft) 0 min 0,0 km/h (0 Bft)
09.03.2010 23:42 11,9 C -0,3 C 0,0 UV-I 0,0 C 33 % 62 % 0 % 1026,4 hPa 0,0 l/m 0,4 km/h (0 Bft) 0 min 0,0 km/h (0 Bft)
09.03.2010 23:44 11,9 C -0,3 C 0,0 UV-I 0,0 C 33 % 62 % 0 % 1026,4 hPa 0,0 l/m 0,0 km/h (0 Bft) 0 min 0,0 km/h (0 Bft)
09.03.2010 23:46 11,9 C -0,3 C 0,0 UV-I 0,0 C 33 % 62 % 0 % 1026,4 hPa 0,0 l/m 0,0 km/h (0 Bft) 0 min 0,0 km/h (0 Bft)
09.03.2010 23:48 12,0 C -0,3 C 0,0 UV-I 0,0 C 33 % 62 % 0 % 1026,4 hPa 0,0 l/m 0,0 km/h (0 Bft) 0 min 0,0 km/h (0 Bft)
09.03.2010 23:50 11,9 C -0,3 C 0,0 UV-I 0,0 C 33 % 62 % 0 % 1026,4 hPa 0,0 l/m 0,0 km/h (0 Bft) 0 min 0,0 km/h (0 Bft)
09.03.2010 23:56 11,9 C -0,4 C 0,0 UV-I 0,0 C 33 % 63 % 0 % 1026,4 hPa 0,0 l/m 0,0 km/h (0 Bft) 0 min 0,0 km/h (0 Bft)
_ Min-Zeit 07:22 07:02 00:00 00:00 15:38 16:42 00:00 00:00 - 00:00 - 00:00
Minimum _ 10,8 C -2,5 C 0,0 UV-I 0,0 C 28 % 31 % 0 % 1023,8 hPa - 0,0 km/h (0 Bft) - 0,0 km/h (0 Bft)
_ Max-Zeit 16:00 16:02 12:30 09:48 00:00 00:00 09:12 14:12 00:00 14:56 09:12 14:50
Maximum _ 17,4 C 6,4 C 11,2 UV-I 10,4 C 38 % 81 % 100 % 1032,6 hPa 0,0 l/m 6,8 km/h
S (2 Bft)
2 min 15,6 km/h
SO (3 Bft)
Durchschnitt _ 12,7 C 1,1 C 1,8 UV-I 2,7 C 34 % 63 % 35 % 1026,3 hPa #0,0 l/m 1,7 km/h (1 Bft) #8:20 h 1,6 km/h (1 Bft)
© 2012 W. Hausmann